Observation data for Claude 12 Southwest on 11/10/2019      Previous  Date       Current Mesonet Observations  Soil Data  Daily Summary Page  Observations in Plain Language
KCL1 100600Z 22005KT 11/00 A3007 RMK A01 T01130003  RH  047%=      5-min Rain = 0
KCL1 100601Z 22006KT 11/00 A3007 RMK A01 T01120003  RH  047%=      5-min Rain = 0
KCL1 100602Z 22005KT 11/00 A3007 RMK A01 T01120003  RH  047%=      5-min Rain = 0
KCL1 100603Z 22007KT 11/00 A3007 RMK A01 T01120003  RH  047%=      5-min Rain = 0
KCL1 100604Z 22006KT 11/00 A3007 RMK A01 T01110003  RH  047%=      5-min Rain = 0
KCL1 100605Z 22005KT 11/00 A3007 RMK A01 T01110003  RH  047%=      5-min Rain = 0
KCL1 100606Z 23006KT 11/00 A3007 RMK A01 T01100003  RH  047%=      5-min Rain = 0
KCL1 100607Z 23007KT 11/00 A3007 RMK A01 T01090003  RH  048%=      5-min Rain = 0
KCL1 100608Z 22006KT 11/00 A3007 RMK A01 T01090003  RH  048%=      5-min Rain = 0
KCL1 100609Z 23006KT 11/00 A3007 RMK A01 T01090003  RH  048%=      5-min Rain = 0
KCL1 100610Z 23007KT 11/00 A3007 RMK A01 T01090003  RH  048%=      5-min Rain = 0
KCL1 100611Z 23007KT 11/00 A3007 RMK A01 T01090003  RH  048%=      5-min Rain = 0
KCL1 100612Z 23006KT 11/00 A3007 RMK A01 T01090003  RH  048%=      5-min Rain = 0
KCL1 100613Z 23006KT 11/00 A3007 RMK A01 T01100003  RH  048%=      5-min Rain = 0
KCL1 100614Z 22007KT 11/00 A3007 RMK A01 T01100003  RH  048%=      5-min Rain = 0
KCL1 100615Z 22006KT 11/00 A3007 RMK A01 T01110004  RH  048%=      5-min Rain = 0
KCL1 100616Z 23006KT 11/00 A3007 RMK A01 T01110004  RH  048%=      5-min Rain = 0
KCL1 100617Z 22005KT 11/00 A3006 RMK A01 T01110003  RH  048%=      5-min Rain = 0
KCL1 100618Z 21005KT 11/00 A3007 RMK A01 T01100003  RH  048%=      5-min Rain = 0
KCL1 100619Z 22004KT 11/00 A3006 RMK A01 T01100003  RH  048%=      5-min Rain = 0
KCL1 100620Z 22005KT 11/00 A3007 RMK A01 T01090003  RH  048%=      5-min Rain = 0
KCL1 100621Z 22006KT 11/00 A3006 RMK A01 T01080003  RH  048%=      5-min Rain = 0
KCL1 100622Z 22005KT 11/00 A3006 RMK A01 T01090003  RH  048%=      5-min Rain = 0
KCL1 100623Z 22005KT 11/00 A3006 RMK A01 T01090003  RH  048%=      5-min Rain = 0
KCL1 100624Z 22005KT 11/00 A3006 RMK A01 T01090003  RH  048%=      5-min Rain = 0
KCL1 100625Z 23005KT 11/00 A3006 RMK A01 T01090003  RH  048%=      5-min Rain = 0
KCL1 100626Z 22005KT 11/00 A3006 RMK A01 T01080003  RH  048%=      5-min Rain = 0
KCL1 100627Z 22005KT 11/00 A3006 RMK A01 T01080003  RH  048%=      5-min Rain = 0
KCL1 100628Z 22005KT 11/00 A3006 RMK A01 T01070003  RH  048%=      5-min Rain = 0
KCL1 100629Z 23006KT 11/00 A3006 RMK A01 T01070003  RH  049%=      5-min Rain = 0
KCL1 100630Z 23005KT 11/00 A3006 RMK A01 T01070003  RH  049%=      5-min Rain = 0
KCL1 100631Z 22006KT 11/00 A3006 RMK A01 T01080004  RH  049%=      5-min Rain = 0
KCL1 100632Z 22006KT 11/00 A3006 RMK A01 T01080004  RH  048%=      5-min Rain = 0
KCL1 100633Z 22006KT 11/00 A3006 RMK A01 T01080004  RH  049%=      5-min Rain = 0
KCL1 100634Z 23006KT 11/00 A3006 RMK A01 T01090004  RH  048%=      5-min Rain = 0
KCL1 100635Z 23006KT 11/00 A3006 RMK A01 T01090004  RH  048%=      5-min Rain = 0
KCL1 100636Z 23006KT 11/00 A3006 RMK A01 T01080004  RH  048%=      5-min Rain = 0
KCL1 100637Z 23006KT 11/00 A3006 RMK A01 T01090004  RH  048%=      5-min Rain = 0
KCL1 100638Z 22008KT 11/00 A3006 RMK A01 T01080004  RH  049%=      5-min Rain = 0
KCL1 100639Z 23006KT 11/01 A3006 RMK A01 T01100005  RH  048%=      5-min Rain = 0
KCL1 100640Z 22006KT 11/01 A3006 RMK A01 T01120006  RH  048%=      5-min Rain = 0
KCL1 100641Z 22006KT 11/01 A3006 RMK A01 T01110005  RH  048%=      5-min Rain = 0
KCL1 100642Z 22006KT 11/01 A3006 RMK A01 T01110005  RH  048%=      5-min Rain = 0
KCL1 100643Z 22005KT 11/01 A3006 RMK A01 T01110005  RH  048%=      5-min Rain = 0
KCL1 100644Z 22006KT 11/01 A3006 RMK A01 T01110005  RH  048%=      5-min Rain = 0
KCL1 100645Z 22007KT 11/01 A3006 RMK A01 T01100005  RH  048%=      5-min Rain = 0
KCL1 100646Z 23006KT 11/01 A3006 RMK A01 T01100005  RH  048%=      5-min Rain = 0
KCL1 100647Z 22005KT 11/01 A3006 RMK A01 T01100005  RH  048%=      5-min Rain = 0
KCL1 100648Z 22004KT 11/01 A3006 RMK A01 T01100006  RH  048%=      5-min Rain = 0
KCL1 100649Z 22007KT 11/01 A3006 RMK A01 T01110006  RH  048%=      5-min Rain = 0
KCL1 100650Z 21006KT 11/01 A3006 RMK A01 T01120006  RH  048%=      5-min Rain = 0
KCL1 100651Z 23005KT 11/01 A3006 RMK A01 T01130007  RH  048%=      5-min Rain = 0
KCL1 100652Z 22008KT 11/01 A3006 RMK A01 T01130007  RH  048%=      5-min Rain = 0
KCL1 100653Z 22008KT 11/01 A3006 RMK A01 T01130007  RH  048%=      5-min Rain = 0
KCL1 100654Z 22007KT 11/01 A3006 RMK A01 T01140007  RH  048%=      5-min Rain = 0
KCL1 100655Z 21006KT 11/01 A3006 RMK A01 T01140007  RH  048%=      5-min Rain = 0
KCL1 100656Z 22005KT 11/01 A3006 RMK A01 T01140007  RH  048%=      5-min Rain = 0
KCL1 100657Z 22006KT 11/01 A3006 RMK A01 T01120007  RH  048%=      5-min Rain = 0
KCL1 100658Z 22006KT 11/01 A3006 RMK A01 T01120007  RH  048%=      5-min Rain = 0
KCL1 100659Z 21006KT 11/01 A3006 RMK A01 T01120007  RH  048%=      5-min Rain = 0
KCL1 100700Z 21006KT 11/01 A3006 RMK A01 T01110007  RH  049%=      5-min Rain = 0
KCL1 100701Z 22005KT 11/01 A3006 RMK A01 T01110007  RH  049%=      5-min Rain = 0
KCL1 100702Z 22005KT 11/01 A3006 RMK A01 T01110007  RH  049%=      5-min Rain = 0
KCL1 100703Z 23005KT 11/01 A3006 RMK A01 T01100007  RH  049%=      5-min Rain = 0
KCL1 100704Z 22005KT 11/01 A3006 RMK A01 T01090007  RH  049%=      5-min Rain = 0
KCL1 100705Z 22006KT 11/01 A3006 RMK A01 T01090007  RH  049%=      5-min Rain = 0
KCL1 100706Z 22006KT 11/01 A3006 RMK A01 T01080007  RH  049%=      5-min Rain = 0
KCL1 100707Z 22006KT 11/01 A3006 RMK A01 T01090007  RH  049%=      5-min Rain = 0
KCL1 100708Z 22006KT 11/01 A3006 RMK A01 T01090007  RH  050%=      5-min Rain = 0
KCL1 100709Z 21005KT 11/01 A3006 RMK A01 T01090007  RH  050%=      5-min Rain = 0
KCL1 100710Z 22006KT 11/01 A3006 RMK A01 T01080007  RH  050%=      5-min Rain = 0
KCL1 100711Z 21005KT 11/01 A3006 RMK A01 T01070007  RH  050%=      5-min Rain = 0
KCL1 100712Z 21006KT 11/01 A3006 RMK A01 T01070007  RH  050%=      5-min Rain = 0
KCL1 100713Z 21005KT 11/01 A3006 RMK A01 T01050007  RH  050%=      5-min Rain = 0
KCL1 100714Z 21005KT 11/01 A3006 RMK A01 T01050007  RH  051%=      5-min Rain = 0
KCL1 100715Z 21006KT 10/01 A3006 RMK A01 T01040006  RH  051%=      5-min Rain = 0
KCL1 100716Z 22005KT 10/01 A3006 RMK A01 T01040007  RH  051%=      5-min Rain = 0
KCL1 100717Z 22005KT 10/01 A3006 RMK A01 T01040008  RH  051%=      5-min Rain = 0
KCL1 100718Z 22005KT 10/01 A3006 RMK A01 T01030007  RH  051%=      5-min Rain = 0
KCL1 100719Z 22006KT 10/01 A3006 RMK A01 T01030007  RH  051%=      5-min Rain = 0
KCL1 100720Z 22005KT 10/01 A3006 RMK A01 T01040008  RH  051%=      5-min Rain = 0
KCL1 100721Z 23006KT 10/01 A3006 RMK A01 T01040008  RH  051%=      5-min Rain = 0
KCL1 100722Z 23005KT 10/01 A3006 RMK A01 T01030007  RH  051%=      5-min Rain = 0
KCL1 100723Z 22004KT 10/01 A3006 RMK A01 T01030007  RH  051%=      5-min Rain = 0
KCL1 100724Z 22005KT 10/01 A3006 RMK A01 T01030007  RH  051%=      5-min Rain = 0
KCL1 100725Z 23005KT 10/01 A3006 RMK A01 T01020007  RH  052%=      5-min Rain = 0
KCL1 100726Z 22004KT 10/01 A3006 RMK A01 T01020007  RH  052%=      5-min Rain = 0
KCL1 100727Z 22005KT 10/01 A3006 RMK A01 T01010007  RH  052%=      5-min Rain = 0
KCL1 100728Z 22005KT 10/01 A3006 RMK A01 T01010007  RH  052%=      5-min Rain = 0
KCL1 100729Z 22005KT 10/01 A3006 RMK A01 T01000007  RH  052%=      5-min Rain = 0
KCL1 100730Z 22005KT 10/01 A3006 RMK A01 T01000007  RH  052%=      5-min Rain = 0
KCL1 100731Z 22004KT 10/01 A3006 RMK A01 T01000007  RH  052%=      5-min Rain = 0
KCL1 100732Z 22005KT 10/01 A3006 RMK A01 T01000007  RH  052%=      5-min Rain = 0
KCL1 100733Z 22005KT 10/01 A3005 RMK A01 T01000007  RH  052%=      5-min Rain = 0
KCL1 100734Z 22005KT 10/01 A3005 RMK A01 T01000007  RH  052%=      5-min Rain = 0
KCL1 100735Z 22005KT 10/01 A3005 RMK A01 T01000008  RH  053%=      5-min Rain = 0
KCL1 100736Z 22005KT 10/01 A3005 RMK A01 T01000008  RH  053%=      5-min Rain = 0
KCL1 100737Z 22005KT 10/01 A3005 RMK A01 T01000008  RH  053%=      5-min Rain = 0
KCL1 100738Z 22006KT 10/01 A3005 RMK A01 T01000009  RH  053%=      5-min Rain = 0
KCL1 100739Z 22006KT 10/01 A3005 RMK A01 T01010011  RH  054%=      5-min Rain = 0
KCL1 100740Z 21006KT 10/01 A3005 RMK A01 T01020012  RH  054%=      5-min Rain = 0
KCL1 100741Z 22006KT 10/01 A3005 RMK A01 T01030013  RH  054%=      5-min Rain = 0
KCL1 100742Z 22007KT 10/01 A3005 RMK A01 T01040014  RH  054%=      5-min Rain = 0
KCL1 100743Z 22006KT 10/01 A3005 RMK A01 T01040014  RH  054%=      5-min Rain = 0
KCL1 100744Z 22005KT 10/01 A3005 RMK A01 T01030014  RH  054%=      5-min Rain = 0
KCL1 100745Z 22005KT 10/02 A3005 RMK A01 T01030016  RH  055%=      5-min Rain = 0
KCL1 100746Z 22006KT 10/02 A3005 RMK A01 T01030016  RH  055%=      5-min Rain = 0
KCL1 100747Z 22004KT 10/02 A3005 RMK A01 T01030016  RH  055%=      5-min Rain = 0
KCL1 100748Z 22006KT 10/02 A3005 RMK A01 T01030017  RH  055%=      5-min Rain = 0
KCL1 100749Z 22006KT 10/02 A3005 RMK A01 T01030018  RH  055%=      5-min Rain = 0
KCL1 100750Z 22006KT 10/02 A3005 RMK A01 T01030018  RH  056%=      5-min Rain = 0
KCL1 100751Z 22007KT 10/02 A3005 RMK A01 T01040019  RH  056%=      5-min Rain = 0
KCL1 100752Z 21006KT 11/02 A3005 RMK A01 T01050021  RH  056%=      5-min Rain = 0
KCL1 100753Z 21006KT 11/02 A3005 RMK A01 T01060020  RH  055%=      5-min Rain = 0
KCL1 100754Z 22006KT 11/02 A3005 RMK A01 T01050020  RH  056%=      5-min Rain = 0
KCL1 100755Z 21008KT 11/02 A3005 RMK A01 T01050024  RH  057%=      5-min Rain = 0
KCL1 100756Z 22007KT 11/03 A3005 RMK A01 T01060026  RH  057%=      5-min Rain = 0
KCL1 100757Z 22009KT 11/03 A3005 RMK A01 T01070027  RH  057%=      5-min Rain = 0
KCL1 100758Z 22006KT 11/03 A3004 RMK A01 T01080028  RH  057%=      5-min Rain = 0
KCL1 100759Z 22006KT 11/03 A3005 RMK A01 T01090027  RH  057%=      5-min Rain = 0
KCL1 100800Z 21007KT 11/03 A3004 RMK A01 T01080026  RH  057%=      5-min Rain = 0
KCL1 100801Z 21006KT 11/03 A3004 RMK A01 T01070026  RH  057%=      5-min Rain = 0
KCL1 100802Z 21006KT 11/03 A3004 RMK A01 T01070026  RH  057%=      5-min Rain = 0
KCL1 100803Z 21007KT 11/03 A3004 RMK A01 T01060026  RH  058%=      5-min Rain = 0
KCL1 100804Z 21006KT 11/03 A3004 RMK A01 T01060026  RH  058%=      5-min Rain = 0
KCL1 100805Z 21007KT 11/03 A3004 RMK A01 T01050027  RH  058%=      5-min Rain = 0
KCL1 100806Z 21007KT 11/03 A3004 RMK A01 T01050028  RH  059%=      5-min Rain = 0
KCL1 100807Z 21007KT 11/03 A3004 RMK A01 T01050029  RH  059%=      5-min Rain = 0
KCL1 100808Z 21006KT 11/03 A3004 RMK A01 T01070031  RH  059%=      5-min Rain = 0
KCL1 100809Z 21007KT 11/03 A3004 RMK A01 T01080031  RH  059%=      5-min Rain = 0
KCL1 100810Z 21005KT 11/03 A3004 RMK A01 T01070031  RH  059%=      5-min Rain = 0
KCL1 100811Z 21006KT 11/03 A3004 RMK A01 T01070030  RH  059%=      5-min Rain = 0
KCL1 100812Z 21006KT 11/03 A3004 RMK A01 T01060030  RH  059%=      5-min Rain = 0
KCL1 100813Z 21005KT 11/03 A3004 RMK A01 T01060030  RH  059%=      5-min Rain = 0
KCL1 100814Z 20006KT 11/03 A3004 RMK A01 T01060030  RH  059%=      5-min Rain = 0
KCL1 100815Z 21007KT 11/03 A3004 RMK A01 T01050030  RH  060%=      5-min Rain = 0
KCL1 100816Z 20007KT 11/03 A3004 RMK A01 T01060031  RH  060%=      5-min Rain = 0
KCL1 100817Z 20007KT 11/03 A3004 RMK A01 T01070032  RH  060%=      5-min Rain = 0
KCL1 100818Z 21006KT 11/03 A3004 RMK A01 T01080032  RH  059%=      5-min Rain = 0
KCL1 100819Z 20006KT 11/03 A3004 RMK A01 T01080032  RH  059%=      5-min Rain = 0
KCL1 100820Z 21008KT 11/03 A3004 RMK A01 T01080032  RH  059%=      5-min Rain = 0
KCL1 100821Z 20008KT 11/03 A3004 RMK A01 T01090033  RH  059%=      5-min Rain = 0
KCL1 100822Z 20008KT 11/03 A3004 RMK A01 T01100033  RH  059%=      5-min Rain = 0
KCL1 100823Z 21007KT 11/03 A3004 RMK A01 T01110033  RH  059%=      5-min Rain = 0
KCL1 100824Z 21007KT 11/03 A3003 RMK A01 T01110033  RH  059%=      5-min Rain = 0
KCL1 100825Z 21007KT 11/03 A3003 RMK A01 T01100033  RH  059%=      5-min Rain = 0
KCL1 100826Z 20007KT 11/03 A3003 RMK A01 T01100033  RH  059%=      5-min Rain = 0
KCL1 100827Z 20007KT 11/03 A3003 RMK A01 T01100033  RH  059%=      5-min Rain = 0
KCL1 100828Z 20007KT 11/03 A3003 RMK A01 T01110033  RH  059%=      5-min Rain = 0
KCL1 100829Z 20006KT 11/03 A3003 RMK A01 T01110033  RH  059%=      5-min Rain = 0
KCL1 100830Z 20006KT 11/03 A3003 RMK A01 T01100033  RH  059%=      5-min Rain = 0
KCL1 100831Z 20006KT 11/03 A3003 RMK A01 T01090033  RH  059%=      5-min Rain = 0
KCL1 100832Z 20007KT 11/03 A3003 RMK A01 T01090032  RH  059%=      5-min Rain = 0
KCL1 100833Z 21007KT 11/03 A3003 RMK A01 T01080032  RH  059%=      5-min Rain = 0
KCL1 100834Z 20007KT 11/03 A3003 RMK A01 T01080032  RH  059%=      5-min Rain = 0
KCL1 100835Z 20007KT 11/03 A3003 RMK A01 T01090032  RH  059%=      5-min Rain = 0
KCL1 100836Z 20007KT 11/03 A3003 RMK A01 T01090032  RH  059%=      5-min Rain = 0
KCL1 100837Z 19008KT 11/03 A3003 RMK A01 T01090031  RH  059%=      5-min Rain = 0
KCL1 100838Z 19008KT 11/03 A3003 RMK A01 T01090031  RH  059%=      5-min Rain = 0
KCL1 100839Z 19008KT 11/03 A3003 RMK A01 T01090031  RH  058%=      5-min Rain = 0
KCL1 100840Z 20008KT 11/03 A3003 RMK A01 T01090031  RH  059%=      5-min Rain = 0
KCL1 100841Z 20009KT 11/03 A3003 RMK A01 T01080030  RH  059%=      5-min Rain = 0
KCL1 100842Z 20010KT 11/03 A3003 RMK A01 T01080031  RH  059%=      5-min Rain = 0
KCL1 100843Z 21008KT 11/03 A3003 RMK A01 T01100031  RH  058%=      5-min Rain = 0
KCL1 100844Z 20008KT 11/03 A3003 RMK A01 T01110031  RH  058%=      5-min Rain = 0
KCL1 100845Z 22005KT 11/03 A3003 RMK A01 T01110030  RH  057%=      5-min Rain = 0
KCL1 100846Z 22007KT 11/03 A3003 RMK A01 T01110030  RH  057%=      5-min Rain = 0
KCL1 100847Z 22007KT 11/03 A3003 RMK A01 T01100029  RH  057%=      5-min Rain = 0
KCL1 100848Z 22007KT 11/03 A3002 RMK A01 T01100029  RH  057%=      5-min Rain = 0
KCL1 100849Z 22007KT 11/03 A3002 RMK A01 T01090028  RH  057%=      5-min Rain = 0
KCL1 100850Z 22007KT 11/03 A3002 RMK A01 T01090028  RH  057%=      5-min Rain = 0
KCL1 100851Z 22007KT 11/03 A3002 RMK A01 T01080028  RH  058%=      5-min Rain = 0
KCL1 100852Z 22006KT 11/03 A3002 RMK A01 T01080028  RH  058%=      5-min Rain = 0
KCL1 100853Z 22007KT 11/03 A3002 RMK A01 T01070027  RH  058%=      5-min Rain = 0
KCL1 100854Z 22007KT 11/03 A3002 RMK A01 T01060027  RH  058%=      5-min Rain = 0
KCL1 100855Z 22006KT 11/03 A3002 RMK A01 T01060027  RH  058%=      5-min Rain = 0
KCL1 100856Z 22005KT 11/03 A3002 RMK A01 T01050027  RH  058%=      5-min Rain = 0
KCL1 100857Z 23007KT 11/03 A3002 RMK A01 T01050027  RH  058%=      5-min Rain = 0
KCL1 100858Z 23006KT 11/03 A3002 RMK A01 T01050027  RH  059%=      5-min Rain = 0
KCL1 100859Z 22005KT 10/03 A3002 RMK A01 T01040027  RH  059%=      5-min Rain = 0
KCL1 100900Z 22006KT 10/03 A3002 RMK A01 T01030026  RH  059%=      5-min Rain = 0
KCL1 100901Z 22006KT 10/03 A3002 RMK A01 T01030027  RH  059%=      5-min Rain = 0
KCL1 100902Z 23005KT 10/03 A3002 RMK A01 T01030027  RH  059%=      5-min Rain = 0
KCL1 100903Z 22006KT 10/03 A3002 RMK A01 T01020026  RH  059%=      5-min Rain = 0
KCL1 100904Z 22006KT 10/03 A3002 RMK A01 T01020026  RH  059%=      5-min Rain = 0
KCL1 100905Z 22006KT 10/03 A3002 RMK A01 T01020026  RH  059%=      5-min Rain = 0
KCL1 100906Z 23005KT 10/03 A3002 RMK A01 T01020027  RH  060%=      5-min Rain = 0
KCL1 100907Z 22006KT 10/03 A3002 RMK A01 T01010026  RH  060%=      5-min Rain = 0
KCL1 100908Z 23005KT 10/03 A3002 RMK A01 T01010027  RH  060%=      5-min Rain = 0
KCL1 100909Z 23006KT 10/03 A3002 RMK A01 T01010027  RH  060%=      5-min Rain = 0
KCL1 100910Z 23008KT 10/03 A3002 RMK A01 T01010027  RH  060%=      5-min Rain = 0
KCL1 100911Z 22007KT 10/03 A3002 RMK A01 T01010027  RH  060%=      5-min Rain = 0
KCL1 100912Z 22006KT 10/03 A3002 RMK A01 T01010027  RH  060%=      5-min Rain = 0
KCL1 100913Z 23008KT 10/03 A3002 RMK A01 T01010028  RH  060%=      5-min Rain = 0
KCL1 100914Z 23007KT 10/03 A3002 RMK A01 T01020028  RH  060%=      5-min Rain = 0
KCL1 100915Z 23007KT 10/03 A3002 RMK A01 T01020028  RH  060%=      5-min Rain = 0
KCL1 100916Z 23008KT 10/03 A3002 RMK A01 T01010028  RH  060%=      5-min Rain = 0
KCL1 100917Z 22007KT 10/03 A3002 RMK A01 T01010028  RH  060%=      5-min Rain = 0
KCL1 100918Z 23006KT 10/03 A3002 RMK A01 T01010028  RH  061%=      5-min Rain = 0
KCL1 100919Z 23005KT 10/03 A3002 RMK A01 T01010028  RH  061%=      5-min Rain = 0
KCL1 100920Z 23006KT 10/03 A3002 RMK A01 T01000028  RH  061%=      5-min Rain = 0
KCL1 100921Z 23006KT 10/03 A3002 RMK A01 T01000028  RH  061%=      5-min Rain = 0
KCL1 100922Z 24006KT 10/03 A3002 RMK A01 T00990028  RH  061%=      5-min Rain = 0
KCL1 100923Z 23006KT 10/03 A3002 RMK A01 T00990028  RH  061%=      5-min Rain = 0
KCL1 100924Z 24005KT 10/03 A3002 RMK A01 T00980027  RH  061%=      5-min Rain = 0
KCL1 100925Z 23005KT 10/03 A3002 RMK A01 T00980027  RH  061%=      5-min Rain = 0
KCL1 100926Z 23004KT 10/03 A3002 RMK A01 T00970027  RH  062%=      5-min Rain = 0
KCL1 100927Z 24004KT 10/03 A3002 RMK A01 T00960026  RH  062%=      5-min Rain = 0
KCL1 100928Z 24004KT 10/03 A3002 RMK A01 T00950026  RH  062%=      5-min Rain = 0
KCL1 100929Z 24003KT 10/03 A3002 RMK A01 T00950026  RH  062%=      5-min Rain = 0
KCL1 100930Z 24004KT 09/03 A3002 RMK A01 T00940026  RH  062%=      5-min Rain = 0
KCL1 100931Z 23004KT 09/03 A3002 RMK A01 T00930025  RH  063%=      5-min Rain = 0
KCL1 100932Z 22004KT 09/03 A3002 RMK A01 T00920025  RH  063%=      5-min Rain = 0
KCL1 100933Z 22003KT 09/03 A3002 RMK A01 T00920026  RH  063%=      5-min Rain = 0
KCL1 100934Z 22003KT 09/03 A3002 RMK A01 T00910025  RH  064%=      5-min Rain = 0
KCL1 100935Z 22003KT 09/03 A3002 RMK A01 T00900025  RH  064%=      5-min Rain = 0
KCL1 100936Z 22003KT 09/03 A3002 RMK A01 T00890025  RH  064%=      5-min Rain = 0
KCL1 100937Z 22003KT 09/03 A3002 RMK A01 T00890025  RH  064%=      5-min Rain = 0
KCL1 100938Z 21003KT 09/03 A3002 RMK A01 T00890026  RH  064%=      5-min Rain = 0
KCL1 100939Z 21003KT 09/03 A3002 RMK A01 T00890025  RH  064%=      5-min Rain = 0
KCL1 100940Z 21004KT 09/03 A3002 RMK A01 T00880025  RH  064%=      5-min Rain = 0
KCL1 100941Z 21004KT 09/03 A3002 RMK A01 T00870025  RH  065%=      5-min Rain = 0
KCL1 100942Z 21004KT 09/03 A3001 RMK A01 T00870025  RH  065%=      5-min Rain = 0
KCL1 100943Z 22005KT 09/03 A3001 RMK A01 T00870025  RH  065%=      5-min Rain = 0
KCL1 100944Z 21004KT 09/03 A3001 RMK A01 T00870025  RH  065%=      5-min Rain = 0
KCL1 100945Z 22004KT 09/03 A3001 RMK A01 T00880026  RH  065%=      5-min Rain = 0
KCL1 100946Z 22004KT 09/03 A3001 RMK A01 T00880026  RH  065%=      5-min Rain = 0
KCL1 100947Z 22004KT 09/03 A3001 RMK A01 T00870025  RH  065%=      5-min Rain = 0
KCL1 100948Z 22004KT 09/03 A3001 RMK A01 T00870026  RH  066%=      5-min Rain = 0
KCL1 100949Z 22004KT 09/03 A3001 RMK A01 T00860026  RH  066%=      5-min Rain = 0
KCL1 100950Z 23004KT 09/03 A3001 RMK A01 T00860026  RH  066%=      5-min Rain = 0
KCL1 100951Z 23003KT 09/03 A3001 RMK A01 T00860026  RH  066%=      5-min Rain = 0
KCL1 100952Z 24004KT 09/03 A3001 RMK A01 T00850026  RH  066%=      5-min Rain = 0
KCL1 100953Z 23003KT 08/03 A3001 RMK A01 T00840025  RH  066%=      5-min Rain = 0
KCL1 100954Z 23004KT 08/03 A3001 RMK A01 T00840025  RH  067%=      5-min Rain = 0
KCL1 100955Z 24003KT 08/03 A3001 RMK A01 T00830025  RH  067%=      5-min Rain = 0
KCL1 100956Z 23003KT 08/03 A3001 RMK A01 T00820025  RH  067%=      5-min Rain = 0
KCL1 100957Z 24003KT 08/03 A3001 RMK A01 T00810025  RH  068%=      5-min Rain = 0
KCL1 100958Z 24002KT 08/03 A3001 RMK A01 T00810026  RH  068%=      5-min Rain = 0
KCL1 100959Z 24003KT 08/03 A3001 RMK A01 T00810025  RH  068%=      5-min Rain = 0
KCL1 101000Z 24003KT 08/03 A3001 RMK A01 T00810025  RH  068%=      5-min Rain = 0
KCL1 101001Z 24003KT 08/03 A3001 RMK A01 T00800025  RH  068%=      5-min Rain = 0
KCL1 101002Z 24003KT 08/03 A3001 RMK A01 T00800026  RH  068%=      5-min Rain = 0
KCL1 101003Z 24003KT 08/03 A3001 RMK A01 T00800025  RH  068%=      5-min Rain = 0
KCL1 101004Z 25004KT 08/03 A3001 RMK A01 T00800026  RH  069%=      5-min Rain = 0
KCL1 101005Z 24004KT 08/03 A3001 RMK A01 T00800026  RH  069%=      5-min Rain = 0
KCL1 101006Z 25005KT 08/03 A3001 RMK A01 T00800026  RH  069%=      5-min Rain = 0
KCL1 101007Z 24004KT 08/03 A3001 RMK A01 T00810027  RH  069%=      5-min Rain = 0
KCL1 101008Z 24006KT 08/03 A3001 RMK A01 T00820028  RH  068%=      5-min Rain = 0
KCL1 101009Z 25008KT 08/03 A3001 RMK A01 T00830028  RH  068%=      5-min Rain = 0
KCL1 101010Z 24007KT 09/03 A3001 RMK A01 T00870032  RH  068%=      5-min Rain = 0
KCL1 101011Z 25009KT 09/03 A3001 RMK A01 T00900032  RH  067%=      5-min Rain = 0
KCL1 101012Z 24008KT 09/03 A3001 RMK A01 T00920032  RH  066%=      5-min Rain = 0
KCL1 101013Z 25008KT 09/03 A3001 RMK A01 T00930032  RH  066%=      5-min Rain = 0
KCL1 101014Z 24006KT 09/03 A3001 RMK A01 T00930032  RH  065%=      5-min Rain = 0
KCL1 101015Z 24007KT 09/03 A30 RMK A01 T00940032  RH  065%=      5-min Rain = 0
KCL1 101016Z 24009KT 09/03 A30 RMK A01 T00940032  RH  065%=      5-min Rain = 0
KCL1 101017Z 24008KT 09/03 A30 RMK A01 T00940032  RH  065%=      5-min Rain = 0
KCL1 101018Z 23007KT 10/03 A30 RMK A01 T00950032  RH  065%=      5-min Rain = 0
KCL1 101019Z 24006KT 10/03 A30 RMK A01 T00960033  RH  065%=      5-min Rain = 0
KCL1 101020Z 24006KT 10/03 A30 RMK A01 T00960032  RH  064%=      5-min Rain = 0
KCL1 101021Z 23006KT 10/03 A30 RMK A01 T00960032  RH  065%=      5-min Rain = 0
KCL1 101022Z 23007KT 10/03 A30 RMK A01 T00950032  RH  065%=      5-min Rain = 0
KCL1 101023Z 23008KT 10/03 A30 RMK A01 T00950032  RH  065%=      5-min Rain = 0
KCL1 101024Z 23005KT 10/03 A30 RMK A01 T00950032  RH  065%=      5-min Rain = 0
KCL1 101025Z 23007KT 10/03 A30 RMK A01 T00950032  RH  065%=      5-min Rain = 0
KCL1 101026Z 23010KT 09/03 A30 RMK A01 T00940032  RH  065%=      5-min Rain = 0
KCL1 101027Z 23008KT 10/03 A30 RMK A01 T00960033  RH  065%=      5-min Rain = 0
KCL1 101028Z 24009KT 10/03 A30 RMK A01 T00970033  RH  064%=      5-min Rain = 0
KCL1 101029Z 23008KT 10/03 A30 RMK A01 T00980033  RH  064%=      5-min Rain = 0
KCL1 101030Z 22007KT 10/03 A30 RMK A01 T00980033  RH  064%=      5-min Rain = 0
KCL1 101031Z 24007KT 10/03 A30 RMK A01 T00970033  RH  064%=      5-min Rain = 0
KCL1 101032Z 23009KT 10/03 A30 RMK A01 T00960033  RH  065%=      5-min Rain = 0
KCL1 101033Z 23009KT 10/03 A30 RMK A01 T00960033  RH  065%=      5-min Rain = 0
KCL1 101034Z 23008KT 10/03 A30 RMK A01 T00960033  RH  065%=      5-min Rain = 0
KCL1 101035Z 24007KT 10/03 A30 RMK A01 T00950033  RH  065%=      5-min Rain = 0
KCL1 101036Z 23009KT 10/03 A30 RMK A01 T00950033  RH  065%=      5-min Rain = 0
KCL1 101037Z 23009KT 10/03 A30 RMK A01 T00950034  RH  066%=      5-min Rain = 0
KCL1 101038Z 23008KT 09/03 A30 RMK A01 T00940034  RH  066%=      5-min Rain = 0
KCL1 101039Z 23007KT 10/03 A30 RMK A01 T00950034  RH  066%=      5-min Rain = 0
KCL1 101040Z 23007KT 09/03 A30 RMK A01 T00940034  RH  066%=      5-min Rain = 0
KCL1 101041Z 23008KT 09/03 A30 RMK A01 T00940034  RH  066%=      5-min Rain = 0
KCL1 101042Z 23008KT 09/03 A30 RMK A01 T00930034  RH  066%=      5-min Rain = 0
KCL1 101043Z 23007KT 09/03 A30 RMK A01 T00930034  RH  067%=      5-min Rain = 0
KCL1 101044Z 23007KT 09/03 A30 RMK A01 T00930034  RH  067%=      5-min Rain = 0
KCL1 101045Z 24008KT 09/03 A30 RMK A01 T00930034  RH  067%=      5-min Rain = 0
KCL1 101046Z 23007KT 09/03 A30 RMK A01 T00920034  RH  067%=      5-min Rain = 0
KCL1 101047Z 23008KT 09/04 A30 RMK A01 T00930035  RH  067%=      5-min Rain = 0
KCL1 101048Z 23008KT 09/04 A30 RMK A01 T00920035  RH  067%=      5-min Rain = 0
KCL1 101049Z 23009KT 09/04 A30 RMK A01 T00920035  RH  067%=      5-min Rain = 0
KCL1 101050Z 23008KT 09/04 A30 RMK A01 T00920035  RH  067%=      5-min Rain = 0
KCL1 101051Z 23011KT 09/04 A30 RMK A01 T00930036  RH  067%=      5-min Rain = 0
KCL1 101052Z 24006KT 09/04 A30 RMK A01 T00940036  RH  067%=      5-min Rain = 0
KCL1 101053Z 24007KT 09/04 A30 RMK A01 T00940036  RH  067%=      5-min Rain = 0
KCL1 101054Z 23007KT 09/04 A30 RMK A01 T00930036  RH  067%=      5-min Rain = 0
KCL1 101055Z 23008KT 09/04 A30 RMK A01 T00930036  RH  067%=      5-min Rain = 0
KCL1 101056Z 23007KT 09/04 A30 RMK A01 T00920035  RH  067%=      5-min Rain = 0
KCL1 101057Z 23008KT 09/04 A30 RMK A01 T00930035  RH  067%=      5-min Rain = 0
KCL1 101058Z 23008KT 09/04 A2999 RMK A01 T00920035  RH  067%=      5-min Rain = 0
KCL1 101059Z 23008KT 09/04 A2999 RMK A01 T00920035  RH  067%=      5-min Rain = 0
KCL1 101100Z 23007KT 09/04 A2999 RMK A01 T00930036  RH  067%=      5-min Rain = 0
KCL1 101101Z 23006KT 09/04 A2999 RMK A01 T00930035  RH  067%=      5-min Rain = 0
KCL1 101102Z 23007KT 09/04 A2999 RMK A01 T00920035  RH  067%=      5-min Rain = 0
KCL1 101103Z 23006KT 09/04 A2999 RMK A01 T00930036  RH  068%=      5-min Rain = 0
KCL1 101104Z 22006KT 09/04 A2999 RMK A01 T00920035  RH  068%=      5-min Rain = 0
KCL1 101105Z 22007KT 09/04 A2999 RMK A01 T00920035  RH  068%=      5-min Rain = 0
KCL1 101106Z 22007KT 09/04 A2999 RMK A01 T00920035  RH  068%=      5-min Rain = 0
KCL1 101107Z 22006KT 09/04 A2999 RMK A01 T00920035  RH  068%=      5-min Rain = 0
KCL1 101108Z 23005KT 09/04 A2999 RMK A01 T00910035  RH  068%=      5-min Rain = 0
KCL1 101109Z 23005KT 09/04 A2999 RMK A01 T00900035  RH  068%=      5-min Rain = 0
KCL1 101110Z 21005KT 09/04 A2999 RMK A01 T00900035  RH  068%=      5-min Rain = 0
KCL1 101111Z 23007KT 09/04 A2999 RMK A01 T00900035  RH  068%=      5-min Rain = 0
KCL1 101112Z 22008KT 09/04 A2999 RMK A01 T00900035  RH  068%=      5-min Rain = 0
KCL1 101113Z 22006KT 09/04 A2999 RMK A01 T00900035  RH  068%=      5-min Rain = 0
KCL1 101114Z 22005KT 09/04 A2999 RMK A01 T00900035  RH  068%=      5-min Rain = 0
KCL1 101115Z 23006KT 09/03 A2999 RMK A01 T00890034  RH  068%=      5-min Rain = 0
KCL1 101116Z 22008KT 09/03 A2999 RMK A01 T00890034  RH  068%=      5-min Rain = 0
KCL1 101117Z 21006KT 09/03 A2999 RMK A01 T00890034  RH  069%=      5-min Rain = 0
KCL1 101118Z 21007KT 09/03 A2999 RMK A01 T00880034  RH  069%=      5-min Rain = 0
KCL1 101119Z 21006KT 09/03 A2999 RMK A01 T00890034  RH  069%=      5-min Rain = 0
KCL1 101120Z 21005KT 09/03 A2999 RMK A01 T00880034  RH  069%=      5-min Rain = 0
KCL1 101121Z 22005KT 09/03 A2999 RMK A01 T00870033  RH  069%=      5-min Rain = 0
KCL1 101122Z 21005KT 09/03 A2999 RMK A01 T00860033  RH  069%=      5-min Rain = 0
KCL1 101123Z 22005KT 09/03 A2999 RMK A01 T00850033  RH  070%=      5-min Rain = 0
KCL1 101124Z 23005KT 09/03 A2999 RMK A01 T00850033  RH  070%=      5-min Rain = 0
KCL1 101125Z 22005KT 09/03 A2999 RMK A01 T00860033  RH  069%=      5-min Rain = 0
KCL1 101126Z 22005KT 09/03 A2998 RMK A01 T00860033  RH  069%=      5-min Rain = 0
KCL1 101127Z 22005KT 09/03 A2998 RMK A01 T00860033  RH  069%=      5-min Rain = 0
KCL1 101128Z 21005KT 09/03 A2998 RMK A01 T00860033  RH  069%=      5-min Rain = 0
KCL1 101129Z 22005KT 09/03 A2999 RMK A01 T00860033  RH  069%=      5-min Rain = 0
KCL1 101130Z 22006KT 09/03 A2999 RMK A01 T00860033  RH  069%=      5-min Rain = 0
KCL1 101131Z 22006KT 09/03 A2999 RMK A01 T00850033  RH  069%=      5-min Rain = 0
KCL1 101132Z 22006KT 09/03 A2999 RMK A01 T00850033  RH  070%=      5-min Rain = 0
KCL1 101133Z 22007KT 09/03 A2998 RMK A01 T00850033  RH  070%=      5-min Rain = 0
KCL1 101134Z 22007KT 09/03 A2998 RMK A01 T00860033  RH  069%=      5-min Rain = 0
KCL1 101135Z 22006KT 09/03 A2998 RMK A01 T00870033  RH  069%=      5-min Rain = 0
KCL1 101136Z 22007KT 09/03 A2998 RMK A01 T00870033  RH  069%=      5-min Rain = 0
KCL1 101137Z 22006KT 09/03 A2998 RMK A01 T00870033  RH  069%=      5-min Rain = 0
KCL1 101138Z 22005KT 09/03 A2998 RMK A01 T00870033  RH  069%=      5-min Rain = 0
KCL1 101139Z 22005KT 09/03 A2998 RMK A01 T00870033  RH  069%=      5-min Rain = 0
KCL1 101140Z 23006KT 09/03 A2998 RMK A01 T00860033  RH  069%=      5-min Rain = 0
KCL1 101141Z 22007KT 09/03 A2998 RMK A01 T00850033  RH  070%=      5-min Rain = 0
KCL1 101142Z 22007KT 09/03 A2998 RMK A01 T00850033  RH  070%=      5-min Rain = 0
KCL1 101143Z 22006KT 09/03 A2999 RMK A01 T00850033  RH  070%=      5-min Rain = 0
KCL1 101144Z 23007KT 09/03 A2999 RMK A01 T00850033  RH  070%=      5-min Rain = 0
KCL1 101145Z 22007KT 09/03 A2999 RMK A01 T00850033  RH  070%=      5-min Rain = 0
KCL1 101146Z 21006KT 09/03 A2999 RMK A01 T00850032  RH  070%=      5-min Rain = 0
KCL1 101147Z 21006KT 09/03 A2999 RMK A01 T00850032  RH  070%=      5-min Rain = 0
KCL1 101148Z 21006KT 09/03 A2999 RMK A01 T00850032  RH  070%=      5-min Rain = 0
KCL1 101149Z 21007KT 09/03 A2999 RMK A01 T00850032  RH  070%=      5-min Rain = 0
KCL1 101150Z 22007KT 08/03 A2998 RMK A01 T00840032  RH  070%=      5-min Rain = 0
KCL1 101151Z 22007KT 08/03 A2998 RMK A01 T00840032  RH  070%=      5-min Rain = 0
KCL1 101152Z 22005KT 09/03 A2998 RMK A01 T00850032  RH  069%=      5-min Rain = 0
KCL1 101153Z 22005KT 09/03 A2998 RMK A01 T00850031  RH  069%=      5-min Rain = 0
KCL1 101154Z 21005KT 09/03 A2998 RMK A01 T00850031  RH  069%=      5-min Rain = 0
KCL1 101155Z 22006KT 08/03 A2998 RMK A01 T00840031  RH  069%=      5-min Rain = 0
KCL1 101156Z 23006KT 08/03 A2998 RMK A01 T00840031  RH  069%=      5-min Rain = 0
KCL1 101157Z 23005KT 08/03 A2998 RMK A01 T00830031  RH  070%=      5-min Rain = 0
KCL1 101158Z 23006KT 08/03 A2998 RMK A01 T00830031  RH  070%=      5-min Rain = 0
KCL1 101159Z 22006KT 08/03 A2998 RMK A01 T00830031  RH  070%=      5-min Rain = 0
KCL1 101200Z 22005KT 08/03 A2998 RMK A01 T00820031  RH  070%=      5-min Rain = 0
KCL1 101201Z 22005KT 08/03 A2998 RMK A01 T00810031  RH  070%=      5-min Rain = 0
KCL1 101202Z 22005KT 08/03 A2998 RMK A01 T00810030  RH  070%=      5-min Rain = 0
KCL1 101203Z 23006KT 08/03 A2998 RMK A01 T00810030  RH  071%=      5-min Rain = 0
KCL1 101204Z 23005KT 08/03 A2998 RMK A01 T00800030  RH  071%=      5-min Rain = 0
KCL1 101205Z 22005KT 08/03 A2998 RMK A01 T00790030  RH  071%=      5-min Rain = 0
KCL1 101206Z 22005KT 08/03 A2998 RMK A01 T00780030  RH  071%=      5-min Rain = 0
KCL1 101207Z 23005KT 08/03 A2998 RMK A01 T00780030  RH  071%=      5-min Rain = 0
KCL1 101208Z 23006KT 08/03 A2998 RMK A01 T00780030  RH  072%=      5-min Rain = 0
KCL1 101209Z 23006KT 08/03 A2998 RMK A01 T00770029  RH  072%=      5-min Rain = 0
KCL1 101210Z 23006KT 08/03 A2998 RMK A01 T00770029  RH  072%=      5-min Rain = 0
KCL1 101211Z 22006KT 08/03 A2998 RMK A01 T00780030  RH  072%=      5-min Rain = 0
KCL1 101212Z 23006KT 08/03 A2998 RMK A01 T00790030  RH  071%=      5-min Rain = 0
KCL1 101213Z 22007KT 08/03 A2998 RMK A01 T00790030  RH  071%=      5-min Rain = 0
KCL1 101214Z 23006KT 08/03 A2998 RMK A01 T00790030  RH  071%=      5-min Rain = 0
KCL1 101215Z 23006KT 08/03 A2998 RMK A01 T00790030  RH  071%=      5-min Rain = 0
KCL1 101216Z 23006KT 08/03 A2998 RMK A01 T00790030  RH  071%=      5-min Rain = 0
KCL1 101217Z 23006KT 08/03 A2998 RMK A01 T00790030  RH  071%=      5-min Rain = 0
KCL1 101218Z 22006KT 08/03 A2998 RMK A01 T00790030  RH  071%=      5-min Rain = 0
KCL1 101219Z 23005KT 08/03 A2998 RMK A01 T00790030  RH  071%=      5-min Rain = 0
KCL1 101220Z 22006KT 08/03 A2998 RMK A01 T00780030  RH  071%=      5-min Rain = 0
KCL1 101221Z 22007KT 08/03 A2998 RMK A01 T00780030  RH  071%=      5-min Rain = 0
KCL1 101222Z 22006KT 08/03 A2998 RMK A01 T00780030  RH  071%=      5-min Rain = 0
KCL1 101223Z 22006KT 08/03 A2998 RMK A01 T00780030  RH  071%=      5-min Rain = 0
KCL1 101224Z 23007KT 08/03 A2998 RMK A01 T00790030  RH  071%=      5-min Rain = 0
KCL1 101225Z 23006KT 08/03 A2998 RMK A01 T00790030  RH  071%=      5-min Rain = 0
KCL1 101226Z 24006KT 08/03 A2998 RMK A01 T00790030  RH  071%=      5-min Rain = 0
KCL1 101227Z 23006KT 08/03 A2998 RMK A01 T00790030  RH  071%=      5-min Rain = 0
KCL1 101228Z 23007KT 08/03 A2998 RMK A01 T00790030  RH  071%=      5-min Rain = 0
KCL1 101229Z 24006KT 08/03 A2998 RMK A01 T00800030  RH  071%=      5-min Rain = 0
KCL1 101230Z 23005KT 08/03 A2998 RMK A01 T00800029  RH  070%=      5-min Rain = 0
KCL1 101231Z 24005KT 08/03 A2998 RMK A01 T00800029  RH  070%=      5-min Rain = 0
KCL1 101232Z 24006KT 08/03 A2998 RMK A01 T00800029  RH  070%=      5-min Rain = 0
KCL1 101233Z 23006KT 08/03 A2998 RMK A01 T00800029  RH  070%=      5-min Rain = 0
KCL1 101234Z 24006KT 08/03 A2998 RMK A01 T00800029  RH  070%=      5-min Rain = 0
KCL1 101235Z 24006KT 08/03 A2998 RMK A01 T00800029  RH  070%=      5-min Rain = 0
KCL1 101236Z 24005KT 08/03 A2998 RMK A01 T00810029  RH  070%=      5-min Rain = 0
KCL1 101237Z 23006KT 08/03 A2998 RMK A01 T00810029  RH  070%=      5-min Rain = 0
KCL1 101238Z 24006KT 08/03 A2998 RMK A01 T00810029  RH  070%=      5-min Rain = 0
KCL1 101239Z 24006KT 08/03 A2998 RMK A01 T00810029  RH  070%=      5-min Rain = 0
KCL1 101240Z 24005KT 08/03 A2998 RMK A01 T00810029  RH  070%=      5-min Rain = 0
KCL1 101241Z 24007KT 08/03 A2998 RMK A01 T00810029  RH  070%=      5-min Rain = 0
KCL1 101242Z 24006KT 08/03 A2998 RMK A01 T00820030  RH  070%=      5-min Rain = 0
KCL1 101243Z 23007KT 08/03 A2998 RMK A01 T00830030  RH  069%=      5-min Rain = 0
KCL1 101244Z 24007KT 08/03 A2998 RMK A01 T00840030  RH  069%=      5-min Rain = 0
KCL1 101245Z 24006KT 08/03 A2998 RMK A01 T00840030  RH  069%=      5-min Rain = 0
KCL1 101246Z 23007KT 08/03 A2998 RMK A01 T00830030  RH  069%=      5-min Rain = 0
KCL1 101247Z 24008KT 08/03 A2998 RMK A01 T00830030  RH  069%=      5-min Rain = 0
KCL1 101248Z 23010KT 08/03 A2998 RMK A01 T00840030  RH  069%=      5-min Rain = 0
KCL1 101249Z 23009KT 08/03 A2998 RMK A01 T00840030  RH  069%=      5-min Rain = 0
KCL1 101250Z 22010KT 09/03 A2998 RMK A01 T00850030  RH  068%=      5-min Rain = 0
KCL1 101251Z 23010KT 09/03 A2998 RMK A01 T00850030  RH  068%=      5-min Rain = 0
KCL1 101252Z 23010KT 09/03 A2998 RMK A01 T00850030  RH  068%=      5-min Rain = 0
KCL1 101253Z 23010KT 09/03 A2998 RMK A01 T00860030  RH  068%=      5-min Rain = 0
KCL1 101254Z 22009KT 09/03 A2998 RMK A01 T00850030  RH  068%=      5-min Rain = 0
KCL1 101255Z 23010KT 09/03 A2998 RMK A01 T00850030  RH  068%=      5-min Rain = 0
KCL1 101256Z 22010KT 09/03 A2998 RMK A01 T00850030  RH  069%=      5-min Rain = 0
KCL1 101257Z 23010KT 09/03 A2998 RMK A01 T00850030  RH  068%=      5-min Rain = 0
KCL1 101258Z 23010KT 09/03 A2998 RMK A01 T00850030  RH  068%=      5-min Rain = 0
KCL1 101259Z 23009KT 09/03 A2998 RMK A01 T00850030  RH  068%=      5-min Rain = 0
KCL1 101300Z 23011KT 08/03 A2998 RMK A01 T00840030  RH  069%=      5-min Rain = 0
KCL1 101301Z 23012KT 08/03 A2998 RMK A01 T00840030  RH  069%=      5-min Rain = 0
KCL1 101302Z 23012KT 08/03 A2998 RMK A01 T00840030  RH  069%=      5-min Rain = 0
KCL1 101303Z 23011KT 08/03 A2998 RMK A01 T00840030  RH  069%=      5-min Rain = 0
KCL1 101304Z 23009KT 09/03 A2998 RMK A01 T00850030  RH  069%=      5-min Rain = 0
KCL1 101305Z 24009KT 08/03 A2998 RMK A01 T00840030  RH  069%=      5-min Rain = 0
KCL1 101306Z 23010KT 08/03 A2998 RMK A01 T00840030  RH  069%=      5-min Rain = 0
KCL1 101307Z 23010KT 08/03 A2998 RMK A01 T00840030  RH  069%=      5-min Rain = 0
KCL1 101308Z 24011KT 08/03 A2998 RMK A01 T00830030  RH  069%=      5-min Rain = 0
KCL1 101309Z 23012KT 08/03 A2998 RMK A01 T00830030  RH  069%=      5-min Rain = 0
KCL1 101310Z 23013KT 08/03 A2998 RMK A01 T00840030  RH  069%=      5-min Rain = 0
KCL1 101311Z 24011KT 08/03 A2998 RMK A01 T00840030  RH  069%=      5-min Rain = 0
KCL1 101312Z 24013KT 08/03 A2998 RMK A01 T00840030  RH  069%=      5-min Rain = 0
KCL1 101313Z 23015KT 08/03 A2998 RMK A01 T00830030  RH  069%=      5-min Rain = 0
KCL1 101314Z 23013KT 08/03 A2998 RMK A01 T00830031  RH  069%=      5-min Rain = 0
KCL1 101315Z 23013KT 08/03 A2998 RMK A01 T00830030  RH  069%=      5-min Rain = 0
KCL1 101316Z 24011KT 08/03 A2998 RMK A01 T00830030  RH  069%=      5-min Rain = 0
KCL1 101317Z 24012G18KT 08/03 A2998 RMK A01 T00830031  RH  069%=      5-min Rain = 0
KCL1 101318Z 24012KT 08/03 A2998 RMK A01 T00830031  RH  070%=      5-min Rain = 0
KCL1 101319Z 23012KT 08/03 A2998 RMK A01 T00830030  RH  070%=      5-min Rain = 0
KCL1 101320Z 23010G16KT 08/03 A2998 RMK A01 T00830030  RH  069%=      5-min Rain = 0
KCL1 101321Z 23014KT 08/03 A2998 RMK A01 T00830030  RH  069%=      5-min Rain = 0
KCL1 101322Z 24012KT 08/03 A2998 RMK A01 T00830030  RH  069%=      5-min Rain = 0
KCL1 101323Z 24012KT 08/03 A2998 RMK A01 T00840031  RH  069%=      5-min Rain = 0
KCL1 101324Z 23012KT 08/03 A2998 RMK A01 T00840031  RH  069%=      5-min Rain = 0
KCL1 101325Z 23013KT 08/03 A2998 RMK A01 T00830030  RH  069%=      5-min Rain = 0
KCL1 101326Z 23012KT 08/03 A2998 RMK A01 T00830030  RH  069%=      5-min Rain = 0
KCL1 101327Z 23011KT 08/03 A2998 RMK A01 T00830030  RH  070%=      5-min Rain = 0
KCL1 101328Z 23014KT 08/03 A2998 RMK A01 T00820030  RH  070%=      5-min Rain = 0
KCL1 101329Z 23011G16KT 08/03 A2998 RMK A01 T00820030  RH  070%=      5-min Rain = 0
KCL1 101330Z 23010KT 08/03 A2998 RMK A01 T00820030  RH  070%=      5-min Rain = 0
KCL1 101331Z 23010KT 08/03 A2998 RMK A01 T00810030  RH  070%=      5-min Rain = 0
KCL1 101332Z 22011KT 08/03 A2998 RMK A01 T00810030  RH  070%=      5-min Rain = 0
KCL1 101333Z 23011KT 08/03 A2998 RMK A01 T00800030  RH  071%=      5-min Rain = 0
KCL1 101334Z 22011KT 08/03 A2998 RMK A01 T00800030  RH  071%=      5-min Rain = 0
KCL1 101335Z 22011KT 08/03 A2998 RMK A01 T00800030  RH  071%=      5-min Rain = 0
KCL1 101336Z 23009KT 08/03 A2998 RMK A01 T00800030  RH  071%=      5-min Rain = 0
KCL1 101337Z 23009KT 08/03 A2998 RMK A01 T00790029  RH  071%=      5-min Rain = 0
KCL1 101338Z 22009KT 08/03 A2998 RMK A01 T00780029  RH  071%=      5-min Rain = 0
KCL1 101339Z 23008KT 08/03 A2998 RMK A01 T00780029  RH  071%=      5-min Rain = 0
KCL1 101340Z 22008KT 08/03 A2998 RMK A01 T00770029  RH  072%=      5-min Rain = 0
KCL1 101341Z 22007KT 08/03 A2998 RMK A01 T00770029  RH  072%=      5-min Rain = 0
KCL1 101342Z 23007KT 08/03 A2998 RMK A01 T00770029  RH  072%=      5-min Rain = 0
KCL1 101343Z 22007KT 08/03 A2998 RMK A01 T00770029  RH  072%=      5-min Rain = 0
KCL1 101344Z 22006KT 08/03 A2999 RMK A01 T00770029  RH  072%=      5-min Rain = 0
KCL1 101345Z 23007KT 08/03 A2998 RMK A01 T00760029  RH  072%=      5-min Rain = 0
KCL1 101346Z 22006KT 08/03 A2998 RMK A01 T00760029  RH  072%=      5-min Rain = 0
KCL1 101347Z 23007KT 08/03 A2998 RMK A01 T00750029  RH  072%=      5-min Rain = 0
KCL1 101348Z 23007KT 08/03 A2998 RMK A01 T00750029  RH  073%=      5-min Rain = 0
KCL1 101349Z 22007KT 08/03 A2998 RMK A01 T00750029  RH  073%=      5-min Rain = 0
KCL1 101350Z 22006KT 08/03 A2999 RMK A01 T00750029  RH  073%=      5-min Rain = 0
KCL1 101351Z 23008KT 07/03 A2999 RMK A01 T00740029  RH  073%=      5-min Rain = 0
KCL1 101352Z 22007KT 07/03 A2999 RMK A01 T00740029  RH  073%=      5-min Rain = 0
KCL1 101353Z 22006KT 07/03 A2999 RMK A01 T00730029  RH  073%=      5-min Rain = 0
KCL1 101354Z 23006KT 07/03 A2999 RMK A01 T00730028  RH  073%=      5-min Rain = 0
KCL1 101355Z 23006KT 07/03 A2999 RMK A01 T00730029  RH  074%=      5-min Rain = 0
KCL1 101356Z 23007KT 07/03 A2999 RMK A01 T00720029  RH  074%=      5-min Rain = 0
KCL1 101357Z 24007KT 07/03 A2999 RMK A01 T00720029  RH  074%=      5-min Rain = 0
KCL1 101358Z 24007KT 07/03 A2999 RMK A01 T00710028  RH  074%=      5-min Rain = 0
KCL1 101359Z 24007KT 07/03 A2999 RMK A01 T00710029  RH  074%=      5-min Rain = 0
KCL1 101400Z 23006KT 07/03 A2999 RMK A01 T00720029  RH  074%=      5-min Rain = 0
KCL1 101401Z 24006KT 07/03 A2999 RMK A01 T00720028  RH  074%=      5-min Rain = 0
KCL1 101402Z 24007KT 07/03 A2999 RMK A01 T00730029  RH  074%=      5-min Rain = 0
KCL1 101403Z 24007KT 07/03 A2999 RMK A01 T00720029  RH  074%=      5-min Rain = 0
KCL1 101404Z 24007KT 07/03 A2999 RMK A01 T00730029  RH  073%=      5-min Rain = 0
KCL1 101405Z 23006KT 07/03 A2999 RMK A01 T00730029  RH  073%=      5-min Rain = 0
KCL1 101406Z 24006KT 07/03 A2999 RMK A01 T00740029  RH  073%=      5-min Rain = 0
KCL1 101407Z 23006KT 07/03 A2999 RMK A01 T00740029  RH  073%=      5-min Rain = 0
KCL1 101408Z 24006KT 08/03 A2999 RMK A01 T00750029  RH  073%=      5-min Rain = 0
KCL1 101409Z 23008KT 08/03 A2999 RMK A01 T00750029  RH  073%=      5-min Rain = 0
KCL1 101410Z 23007KT 08/03 A2999 RMK A01 T00760029  RH  072%=      5-min Rain = 0
KCL1 101411Z 23007KT 08/03 A2999 RMK A01 T00760029  RH  072%=      5-min Rain = 0
KCL1 101412Z 23008KT 08/03 A2999 RMK A01 T00760029  RH  072%=      5-min Rain = 0
KCL1 101413Z 24008KT 08/03 A2999 RMK A01 T00770029  RH  072%=      5-min Rain = 0
KCL1 101414Z 24007KT 08/03 A2999 RMK A01 T00770029  RH  072%=      5-min Rain = 0
KCL1 101415Z 24006KT 08/03 A2998 RMK A01 T00780029  RH  071%=      5-min Rain = 0
KCL1 101416Z 24006KT 08/03 A2998 RMK A01 T00780029  RH  071%=      5-min Rain = 0
KCL1 101417Z 23007KT 08/03 A2998 RMK A01 T00780029  RH  071%=      5-min Rain = 0
KCL1 101418Z 23007KT 08/03 A2998 RMK A01 T00780029  RH  071%=      5-min Rain = 0
KCL1 101419Z 22008KT 08/03 A2998 RMK A01 T00780029  RH  071%=      5-min Rain = 0
KCL1 101420Z 23008KT 08/03 A2998 RMK A01 T00780029  RH  071%=      5-min Rain = 0
KCL1 101421Z 23008KT 08/03 A2998 RMK A01 T00790029  RH  071%=      5-min Rain = 0
KCL1 101422Z 23006KT 08/03 A2998 RMK A01 T00790029  RH  071%=      5-min Rain = 0
KCL1 101423Z 23007KT 08/03 A2998 RMK A01 T00790030  RH  071%=      5-min Rain = 0
KCL1 101424Z 22007KT 08/03 A2998 RMK A01 T00790030  RH  071%=      5-min Rain = 0
KCL1 101425Z 23008KT 08/03 A2998 RMK A01 T00790030  RH  071%=      5-min Rain = 0
KCL1 101426Z 22008KT 08/03 A2998 RMK A01 T00790030  RH  071%=      5-min Rain = 0
KCL1 101427Z 22007KT 08/03 A2998 RMK A01 T00790029  RH  071%=      5-min Rain = 0
KCL1 101428Z 22006KT 08/03 A2998 RMK A01 T00790029  RH  071%=      5-min Rain = 0
KCL1 101429Z 22006KT 08/03 A2998 RMK A01 T00790030  RH  071%=      5-min Rain = 0
KCL1 101430Z 23007KT 08/03 A2998 RMK A01 T00790030  RH  071%=      5-min Rain = 0
KCL1 101431Z 23007KT 08/03 A2998 RMK A01 T00790030  RH  071%=      5-min Rain = 0
KCL1 101432Z 22007KT 08/03 A2998 RMK A01 T00790030  RH  071%=      5-min Rain = 0
KCL1 101433Z 23007KT 08/03 A2998 RMK A01 T00800030  RH  071%=      5-min Rain = 0
KCL1 101434Z 22007KT 08/03 A2998 RMK A01 T00800029  RH  070%=      5-min Rain = 0
KCL1 101435Z 23007KT 08/03 A2998 RMK A01 T00810030  RH  070%=      5-min Rain = 0
KCL1 101436Z 23007KT 08/03 A2998 RMK A01 T00810029  RH  070%=      5-min Rain = 0
KCL1 101437Z 22005KT 08/03 A2998 RMK A01 T00810030  RH  070%=      5-min Rain = 0
KCL1 101438Z 23006KT 08/03 A2998 RMK A01 T00820031  RH  070%=      5-min Rain = 0
KCL1 101439Z 24004KT 08/03 A2998 RMK A01 T00830031  RH  069%=      5-min Rain = 0
KCL1 101440Z 23005KT 08/03 A2998 RMK A01 T00840031  RH  069%=      5-min Rain = 0
KCL1 101441Z 23006KT 09/03 A2998 RMK A01 T00850031  RH  069%=      5-min Rain = 0
KCL1 101442Z 22005KT 09/03 A2998 RMK A01 T00850031  RH  068%=      5-min Rain = 0
KCL1 101443Z 22006KT 09/03 A2998 RMK A01 T00850031  RH  069%=      5-min Rain = 0
KCL1 101444Z 23005KT 09/03 A2998 RMK A01 T00860031  RH  069%=      5-min Rain = 0
KCL1 101445Z 22005KT 09/03 A2998 RMK A01 T00870032  RH  069%=      5-min Rain = 0
KCL1 101446Z 22006KT 09/03 A2998 RMK A01 T00870031  RH  068%=      5-min Rain = 0
KCL1 101447Z 22006KT 09/03 A2998 RMK A01 T00870031  RH  068%=      5-min Rain = 0
KCL1 101448Z 22005KT 09/03 A2999 RMK A01 T00870031  RH  068%=      5-min Rain = 0
KCL1 101449Z 23005KT 09/03 A2999 RMK A01 T00870032  RH  068%=      5-min Rain = 0
KCL1 101450Z 22006KT 09/03 A2999 RMK A01 T00880032  RH  068%=      5-min Rain = 0
KCL1 101451Z 23006KT 09/03 A2999 RMK A01 T00890032  RH  068%=      5-min Rain = 0
KCL1 101452Z 23007KT 09/03 A2999 RMK A01 T00890032  RH  067%=      5-min Rain = 0
KCL1 101453Z 25005KT 09/03 A2999 RMK A01 T00910033  RH  067%=      5-min Rain = 0
KCL1 101454Z 24005KT 09/03 A2999 RMK A01 T00920033  RH  067%=      5-min Rain = 0
KCL1 101455Z 24005KT 09/03 A2999 RMK A01 T00930034  RH  066%=      5-min Rain = 0
KCL1 101456Z 24007KT 10/03 A2999 RMK A01 T00950034  RH  066%=      5-min Rain = 0
KCL1 101457Z 24006KT 10/03 A2999 RMK A01 T00950033  RH  065%=      5-min Rain = 0
KCL1 101458Z 24005KT 10/03 A2999 RMK A01 T00960033  RH  065%=      5-min Rain = 0
KCL1 101459Z 25007KT 10/03 A2999 RMK A01 T00960034  RH  065%=      5-min Rain = 0
KCL1 101500Z 24006KT 10/03 A2999 RMK A01 T00970034  RH  065%=      5-min Rain = 0
KCL1 101501Z 25007KT 10/03 A2999 RMK A01 T00990034  RH  064%=      5-min Rain = 0
KCL1 101502Z 26006KT 10/04 A2999 RMK A01 T01000035  RH  064%=      5-min Rain = 0
KCL1 101503Z 25006KT 10/04 A2999 RMK A01 T01010035  RH  063%=      5-min Rain = 0
KCL1 101504Z 26005KT 10/04 A2999 RMK A01 T01020035  RH  063%=      5-min Rain = 0
KCL1 101505Z 26005KT 10/04 A2999 RMK A01 T01040035  RH  063%=      5-min Rain = 0
KCL1 101506Z 25007KT 11/04 A2999 RMK A01 T01050035  RH  062%=      5-min Rain = 0
KCL1 101507Z 26006KT 11/04 A2999 RMK A01 T01050035  RH  062%=      5-min Rain = 0
KCL1 101508Z 25011KT 11/03 A2999 RMK A01 T01070033  RH  060%=      5-min Rain = 0
KCL1 101509Z 25007KT 11/03 A2999 RMK A01 T01090034  RH  060%=      5-min Rain = 0
KCL1 101510Z 25009KT 11/03 A2998 RMK A01 T01100034  RH  059%=      5-min Rain = 0
KCL1 101511Z 25008KT 11/03 A2998 RMK A01 T01110034  RH  059%=      5-min Rain = 0
KCL1 101512Z 26010KT 11/03 A2998 RMK A01 T01120033  RH  058%=      5-min Rain = 0
KCL1 101513Z 25011KT 11/03 A2998 RMK A01 T01130031  RH  057%=      5-min Rain = 0
KCL1 101514Z 24007KT 12/03 A2998 RMK A01 T01150031  RH  057%=      5-min Rain = 0
KCL1 101515Z 24008KT 12/03 A2998 RMK A01 T01150032  RH  057%=      5-min Rain = 0
KCL1 101516Z 24007KT 12/03 A2998 RMK A01 T01160033  RH  056%=      5-min Rain = 0
KCL1 101517Z 24008KT 12/03 A2998 RMK A01 T01170032  RH  056%=      5-min Rain = 0
KCL1 101518Z 24007KT 12/03 A2998 RMK A01 T01160032  RH  056%=      5-min Rain = 0
KCL1 101519Z 24006KT 12/03 A2998 RMK A01 T01170032  RH  056%=      5-min Rain = 0
KCL1 101520Z 24007KT 12/03 A2998 RMK A01 T01180033  RH  056%=      5-min Rain = 0
KCL1 101521Z 23006KT 12/03 A2998 RMK A01 T01180033  RH  056%=      5-min Rain = 0
KCL1 101522Z 25006KT 12/03 A2998 RMK A01 T01180034  RH  056%=      5-min Rain = 0
KCL1 101523Z 24008KT 12/03 A2998 RMK A01 T01180033  RH  056%=      5-min Rain = 0
KCL1 101524Z 23008KT 12/03 A2998 RMK A01 T01180033  RH  056%=      5-min Rain = 0
KCL1 101525Z 23007KT 12/03 A2998 RMK A01 T01180033  RH  056%=      5-min Rain = 0
KCL1 101526Z 23007KT 12/03 A2998 RMK A01 T01190033  RH  056%=      5-min Rain = 0
KCL1 101527Z 23008KT 12/03 A2998 RMK A01 T01190032  RH  055%=      5-min Rain = 0
KCL1 101528Z 24007KT 12/03 A2998 RMK A01 T01190033  RH  056%=      5-min Rain = 0
KCL1 101529Z 24008KT 12/03 A2998 RMK A01 T01210032  RH  055%=      5-min Rain = 0
KCL1 101530Z 22008KT 12/03 A2998 RMK A01 T01210032  RH  054%=      5-min Rain = 0
KCL1 101531Z 23008KT 12/03 A2998 RMK A01 T01220032  RH  054%=      5-min Rain = 0
KCL1 101532Z 24009KT 12/03 A2998 RMK A01 T01220031  RH  053%=      5-min Rain = 0
KCL1 101533Z 23008KT 12/03 A2998 RMK A01 T01230031  RH  053%=      5-min Rain = 0
KCL1 101534Z 24009KT 12/03 A2998 RMK A01 T01240031  RH  053%=      5-min Rain = 0
KCL1 101535Z 23012KT 12/03 A2998 RMK A01 T01240030  RH  052%=      5-min Rain = 0
KCL1 101536Z 24008G13KT 13/03 A2998 RMK A01 T01250029  RH  052%=      5-min Rain = 0
KCL1 101537Z 23010KT 13/03 A2998 RMK A01 T01250029  RH  052%=      5-min Rain = 0
KCL1 101538Z 25009KT 13/03 A2998 RMK A01 T01260029  RH  052%=      5-min Rain = 0
KCL1 101539Z 24008KT 13/03 A2998 RMK A01 T01260030  RH  052%=      5-min Rain = 0
KCL1 101540Z 23009KT 13/03 A2998 RMK A01 T01260031  RH  052%=      5-min Rain = 0
KCL1 101541Z 24009KT 13/03 A2998 RMK A01 T01260030  RH  052%=      5-min Rain = 0
KCL1 101542Z 24009KT 13/03 A2998 RMK A01 T01250029  RH  052%=      5-min Rain = 0
KCL1 101543Z 23009KT 13/03 A2998 RMK A01 T01260030  RH  052%=      5-min Rain = 0
KCL1 101544Z 25009KT 13/03 A2998 RMK A01 T01270031  RH  052%=      5-min Rain = 0
KCL1 101545Z 25009KT 13/03 A2998 RMK A01 T01270030  RH  051%=      5-min Rain = 0
KCL1 101546Z 23009KT 13/03 A2998 RMK A01 T01280029  RH  051%=      5-min Rain = 0
KCL1 101547Z 24008KT 13/03 A2998 RMK A01 T01280031  RH  051%=      5-min Rain = 0
KCL1 101548Z 24007KT 13/03 A2998 RMK A01 T01280031  RH  052%=      5-min Rain = 0
KCL1 101549Z 24007KT 13/03 A2998 RMK A01 T01290031  RH  051%=      5-min Rain = 0
KCL1 101550Z 26010KT 13/03 A2998 RMK A01 T01300029  RH  050%=      5-min Rain = 0
KCL1 101551Z 26009KT 13/03 A2998 RMK A01 T01310027  RH  049%=      5-min Rain = 0
KCL1 101552Z 23008KT 13/03 A2998 RMK A01 T01320029  RH  050%=      5-min Rain = 0
KCL1 101553Z 25009KT 13/03 A2998 RMK A01 T01320029  RH  050%=      5-min Rain = 0
KCL1 101554Z 25009KT 13/03 A2998 RMK A01 T01320028  RH  049%=      5-min Rain = 0
KCL1 101555Z 25009KT 13/03 A2998 RMK A01 T01320028  RH  049%=      5-min Rain = 0
KCL1 101556Z 24008KT 13/03 A2998 RMK A01 T01330029  RH  050%=      5-min Rain = 0
KCL1 101557Z 26010KT 13/03 A2998 RMK A01 T01340028  RH  049%=      5-min Rain = 0
KCL1 101558Z 23008KT 13/03 A2998 RMK A01 T01340028  RH  049%=      5-min Rain = 0
KCL1 101559Z 25009KT 14/03 A2998 RMK A01 T01360029  RH  048%=      5-min Rain = 0
KCL1 101600Z 25010KT 14/03 A2998 RMK A01 T01370027  RH  048%=      5-min Rain = 0
KCL1 101601Z 25007KT 14/03 A2998 RMK A01 T01370028  RH  048%=      5-min Rain = 0
KCL1 101602Z 26010KT 14/03 A2998 RMK A01 T01370028  RH  048%=      5-min Rain = 0
KCL1 101603Z 25009KT 14/03 A2998 RMK A01 T01370026  RH  047%=      5-min Rain = 0
KCL1 101604Z 23008KT 14/03 A2998 RMK A01 T01380027  RH  047%=      5-min Rain = 0
KCL1 101605Z 25009KT 14/03 A2998 RMK A01 T01380026  RH  047%=      5-min Rain = 0
KCL1 101606Z 25008KT 14/03 A2998 RMK A01 T01380027  RH  047%=      5-min Rain = 0
KCL1 101607Z 24008KT 14/03 A2998 RMK A01 T01390028  RH  047%=      5-min Rain = 0
KCL1 101608Z 23011KT 14/03 A2998 RMK A01 T01410026  RH  046%=      5-min Rain = 0
KCL1 101609Z 23012KT 14/02 A2998 RMK A01 T01400023  RH  045%=      5-min Rain = 0
KCL1 101610Z 24009KT 14/02 A2998 RMK A01 T01410023  RH  045%=      5-min Rain = 0
KCL1 101611Z 25008KT 14/03 A2998 RMK A01 T01420025  RH  045%=      5-min Rain = 0
KCL1 101612Z 23011KT 14/03 A2998 RMK A01 T01440025  RH  045%=      5-min Rain = 0
KCL1 101613Z 24011KT 14/02 A2998 RMK A01 T01440023  RH  044%=      5-min Rain = 0
KCL1 101614Z 25010KT 14/02 A2998 RMK A01 T01440024  RH  044%=      5-min Rain = 0
KCL1 101615Z 24010KT 14/03 A2998 RMK A01 T01440025  RH  045%=      5-min Rain = 0
KCL1 101616Z 24009KT 14/02 A2998 RMK A01 T01440024  RH  044%=      5-min Rain = 0
KCL1 101617Z 25011KT 15/02 A2998 RMK A01 T01450023  RH  044%=      5-min Rain = 0
KCL1 101618Z 25010KT 15/02 A2997 RMK A01 T01460023  RH  044%=      5-min Rain = 0
KCL1 101619Z 24006KT 15/03 A2997 RMK A01 T01460025  RH  044%=      5-min Rain = 0
KCL1 101620Z 24011KT 15/03 A2997 RMK A01 T01480025  RH  044%=      5-min Rain = 0
KCL1 101621Z 25007KT 15/02 A2997 RMK A01 T01480022  RH  043%=      5-min Rain = 0
KCL1 101622Z 25010KT 15/02 A2997 RMK A01 T01490023  RH  043%=      5-min Rain = 0
KCL1 101623Z 24008KT 15/02 A2997 RMK A01 T01500023  RH  042%=      5-min Rain = 0
KCL1 101624Z 24007KT 15/02 A2997 RMK A01 T01500023  RH  042%=      5-min Rain = 0
KCL1 101625Z 25011KT 15/02 A2997 RMK A01 T01520023  RH  042%=      5-min Rain = 0
KCL1 101626Z 25007KT 15/02 A2997 RMK A01 T01510021  RH  041%=      5-min Rain = 0
KCL1 101627Z 23008KT 15/02 A2997 RMK A01 T01510020  RH  041%=      5-min Rain = 0
KCL1 101628Z 23007KT 15/02 A2997 RMK A01 T01520021  RH  041%=      5-min Rain = 0
KCL1 101629Z 25007KT 15/02 A2997 RMK A01 T01520022  RH  041%=      5-min Rain = 0
KCL1 101630Z 23009KT 15/02 A2997 RMK A01 T01540023  RH  041%=      5-min Rain = 0
KCL1 101631Z 23008KT 15/02 A2997 RMK A01 T01540018  RH  040%=      5-min Rain = 0
KCL1 101632Z 24009KT 15/02 A2997 RMK A01 T01530018  RH  040%=      5-min Rain = 0
KCL1 101633Z 24008KT 15/02 A2997 RMK A01 T01530019  RH  040%=      5-min Rain = 0
KCL1 101634Z 23008KT 15/02 A2997 RMK A01 T01540019  RH  040%=      5-min Rain = 0
KCL1 101635Z 23009KT 15/02 A2997 RMK A01 T01540017  RH  040%=      5-min Rain = 0
KCL1 101636Z 24007KT 15/02 A2997 RMK A01 T01540017  RH  040%=      5-min Rain = 0
KCL1 101637Z 24005KT 15/02 A2997 RMK A01 T01540019  RH  040%=      5-min Rain = 0
KCL1 101638Z 24005KT 16/02 A2997 RMK A01 T01560019  RH  040%=      5-min Rain = 0
KCL1 101639Z 22007KT 16/02 A2997 RMK A01 T01560017  RH  039%=      5-min Rain = 0
KCL1 101640Z 21006KT 16/02 A2997 RMK A01 T01570016  RH  038%=      5-min Rain = 0
KCL1 101641Z 23005KT 16/02 A2997 RMK A01 T01570017  RH  039%=      5-min Rain = 0
KCL1 101642Z 26007KT 16/02 A2997 RMK A01 T01580018  RH  039%=      5-min Rain = 0
KCL1 101643Z 26006KT 16/01 A2997 RMK A01 T01580012  RH  037%=      5-min Rain = 0
KCL1 101644Z 27007KT 16/01 A2997 RMK A01 T01590012  RH  037%=      5-min Rain = 0
KCL1 101645Z 28005KT 16/01 A2997 RMK A01 T01600012  RH  037%=      5-min Rain = 0
KCL1 101646Z 25003KT 16/02 A2997 RMK A01 T01620016  RH  037%=      5-min Rain = 0
KCL1 101647Z 24006KT 16/02 A2997 RMK A01 T01640018  RH  037%=      5-min Rain = 0
KCL1 101648Z 23005KT 16/02 A2997 RMK A01 T01640016  RH  037%=      5-min Rain = 0
KCL1 101649Z 23005KT 16/01 A2996 RMK A01 T01630014  RH  037%=      5-min Rain = 0
KCL1 101650Z 26005KT 16/02 A2997 RMK A01 T01620015  RH  037%=      5-min Rain = 0
KCL1 101651Z 25005KT 16/02 A2996 RMK A01 T01620015  RH  037%=      5-min Rain = 0
KCL1 101652Z 23006KT 16/02 A2996 RMK A01 T01640018  RH  037%=      5-min Rain = 0
KCL1 101653Z 23007KT 17/02 A2996 RMK A01 T01650016  RH  037%=      5-min Rain = 0
KCL1 101654Z 23005KT 17/02 A2996 RMK A01 T01650015  RH  036%=      5-min Rain = 0
KCL1 101655Z 25006KT 17/02 A2996 RMK A01 T01650015  RH  036%=      5-min Rain = 0
KCL1 101656Z 23007KT 17/02 A2996 RMK A01 T01650015  RH  036%=      5-min Rain = 0
KCL1 101657Z 23007KT 17/01 A2996 RMK A01 T01650012  RH  035%=      5-min Rain = 0
KCL1 101658Z 23006KT 17/01 A2996 RMK A01 T01660013  RH  036%=      5-min Rain = 0
KCL1 101659Z 23005KT 17/02 A2996 RMK A01 T01660015  RH  036%=      5-min Rain = 0
KCL1 101700Z 22007KT 17/01 A2996 RMK A01 T01670014  RH  036%=      5-min Rain = 0
KCL1 101701Z 22006KT 17/01 A2996 RMK A01 T01680014  RH  035%=      5-min Rain = 0
KCL1 101702Z 22006KT 17/01 A2996 RMK A01 T01680013  RH  035%=      5-min Rain = 0
KCL1 101703Z 22005KT 17/01 A2996 RMK A01 T01670012  RH  035%=      5-min Rain = 0
KCL1 101704Z 23005KT 17/01 A2996 RMK A01 T01670012  RH  035%=      5-min Rain = 0
KCL1 101705Z 22007KT 17/01 A2996 RMK A01 T01660011  RH  035%=      5-min Rain = 0
KCL1 101706Z 21006KT 17/01 A2996 RMK A01 T01660011  RH  035%=      5-min Rain = 0
KCL1 101707Z 21006KT 17/01 A2996 RMK A01 T01670012  RH  035%=      5-min Rain = 0
KCL1 101708Z 21007KT 17/01 A2996 RMK A01 T01670013  RH  035%=      5-min Rain = 0
KCL1 101709Z 22005KT 17/01 A2996 RMK A01 T01670011  RH  035%=      5-min Rain = 0
KCL1 101710Z 23005KT 17/01 A2996 RMK A01 T01670011  RH  035%=      5-min Rain = 0
KCL1 101711Z 23005KT 17/01 A2996 RMK A01 T01670013  RH  035%=      5-min Rain = 0
KCL1 101712Z 21006KT 17/01 A2996 RMK A01 T01690013  RH  035%=      5-min Rain = 0
KCL1 101713Z 22006KT 17/01 A2996 RMK A01 T01700012  RH  034%=      5-min Rain = 0
KCL1 101714Z 21008KT 17/01 A2996 RMK A01 T01710011  RH  034%=      5-min Rain = 0
KCL1 101715Z 21005KT 17/01 A2996 RMK A01 T01700009  RH  034%=      5-min Rain = 0
KCL1 101716Z 20005KT 17/01 A2995 RMK A01 T01710011  RH  034%=      5-min Rain = 0
KCL1 101717Z 21006KT 17/01 A2995 RMK A01 T01720009  RH  033%=      5-min Rain = 0
KCL1 101718Z 22006KT 17/01 A2995 RMK A01 T01710008  RH  033%=      5-min Rain = 0
KCL1 101719Z 23004KT 17/01 A2995 RMK A01 T01700009  RH  034%=      5-min Rain = 0
KCL1 101720Z 22004KT 17/01 A2995 RMK A01 T01700009  RH  033%=      5-min Rain = 0
KCL1 101721Z 21006KT 17/01 A2995 RMK A01 T01700007  RH  033%=      5-min Rain = 0
KCL1 101722Z 22007KT 17/01 A2995 RMK A01 T01700008  RH  034%=      5-min Rain = 0
KCL1 101723Z 22007KT 17/01 A2995 RMK A01 T01700006  RH  033%=      5-min Rain = 0
KCL1 101724Z 22007KT 17/01 A2995 RMK A01 T01700005  RH  033%=      5-min Rain = 0
KCL1 101725Z 22005KT 17/00 A2995 RMK A01 T01710004  RH  032%=      5-min Rain = 0
KCL1 101726Z 21008KT 17/01 A2994 RMK A01 T01710006  RH  033%=      5-min Rain = 0
KCL1 101727Z 21007KT 17/01 A2994 RMK A01 T01720007  RH  033%=      5-min Rain = 0
KCL1 101728Z 21007KT 17/01 A2994 RMK A01 T01720006  RH  033%=      5-min Rain = 0
KCL1 101729Z 21007KT 17/01 A2994 RMK A01 T01720007  RH  033%=      5-min Rain = 0
KCL1 101730Z 22007KT 17/01 A2994 RMK A01 T01730008  RH  033%=      5-min Rain = 0
KCL1 101731Z 22008KT 17/01 A2994 RMK A01 T01740006  RH  032%=      5-min Rain = 0
KCL1 101732Z 22008KT 17/00 A2994 RMK A01 T01740004  RH  032%=      5-min Rain = 0
KCL1 101733Z 22007KT 17/00 A2994 RMK A01 T01730004  RH  032%=      5-min Rain = 0
KCL1 101734Z 22006KT 17/00 A2994 RMK A01 T01720004  RH  032%=      5-min Rain = 0
KCL1 101735Z 23006KT 17/00 A2994 RMK A01 T01720004  RH  032%=      5-min Rain = 0
KCL1 101736Z 23006KT 17/01 A2994 RMK A01 T01730007  RH  032%=      5-min Rain = 0
KCL1 101737Z 24006KT 17/01 A2994 RMK A01 T01740007  RH  032%=      5-min Rain = 0
KCL1 101738Z 24007KT 18/01 A2994 RMK A01 T01750007  RH  032%=      5-min Rain = 0
KCL1 101739Z 25005KT 18/01 A2994 RMK A01 T01750006  RH  032%=      5-min Rain = 0
KCL1 101740Z 25005KT 18/01 A2994 RMK A01 T01750005  RH  032%=      5-min Rain = 0
KCL1 101741Z 25003KT 18/01 A2994 RMK A01 T01760006  RH  032%=      5-min Rain = 0
KCL1 101742Z 26004KT 18/01 A2994 RMK A01 T01780010  RH  032%=      5-min Rain = 0
KCL1 101743Z 27005KT 18/01 A2994 RMK A01 T01790008  RH  032%=      5-min Rain = 0
KCL1 101744Z 26005KT 18/01 A2994 RMK A01 T01790010  RH  032%=      5-min Rain = 0
KCL1 101745Z 24004KT 18/01 A2994 RMK A01 T01780009  RH  032%=      5-min Rain = 0
KCL1 101746Z 21005KT 18/01 A2994 RMK A01 T01770011  RH  033%=      5-min Rain = 0
KCL1 101747Z 25003KT 18/01 A2994 RMK A01 T01770012  RH  033%=      5-min Rain = 0
KCL1 101748Z 21005KT 18/01 A2994 RMK A01 T01780012  RH  033%=      5-min Rain = 0
KCL1 101749Z 20006KT 18/01 A2993 RMK A01 T01780009  RH  032%=      5-min Rain = 0
KCL1 101750Z 22004KT 18/01 A2993 RMK A01 T01770008  RH  032%=      5-min Rain = 0
KCL1 101751Z 23004KT 18/01 A2993 RMK A01 T01770006  RH  032%=      5-min Rain = 0
KCL1 101752Z 22005KT 18/01 A2993 RMK A01 T01760007  RH  032%=      5-min Rain = 0
KCL1 101753Z 20005KT 18/01 A2993 RMK A01 T01750009  RH  033%=      5-min Rain = 0
KCL1 101754Z 19004KT 17/01 A2993 RMK A01 T01740010  RH  033%=      5-min Rain = 0
KCL1 101755Z 21006KT 17/01 A2993 RMK A01 T01740010  RH  033%=      5-min Rain = 0
KCL1 101756Z 20004KT 18/01 A2993 RMK A01 T01750009  RH  033%=      5-min Rain = 0
KCL1 101757Z 23004KT 18/01 A2994 RMK A01 T01750011  RH  033%=      5-min Rain = 0
KCL1 101758Z 23004KT 18/01 A2993 RMK A01 T01770010  RH  033%=      5-min Rain = 0
KCL1 101759Z 21005KT 18/01 A2993 RMK A01 T01780011  RH  033%=      5-min Rain = 0
KCL1 101800Z 20005KT 18/01 A2993 RMK A01 T01790010  RH  032%=      5-min Rain = 0
KCL1 101801Z 22006KT 18/01 A2993 RMK A01 T01780012  RH  033%=      5-min Rain = 0
KCL1 101802Z 22006KT 18/01 A2993 RMK A01 T01780007  RH  032%=      5-min Rain = 0
KCL1 101803Z 20007KT 18/00 A2993 RMK A01 T01780003  RH  031%=      5-min Rain = 0
KCL1 101804Z 19006KT 18/01 A2993 RMK A01 T01780006  RH  031%=      5-min Rain = 0
KCL1 101805Z 19007KT 18/00 A2993 RMK A01 T01790002  RH  030%=      5-min Rain = 0
KCL1 101806Z 20007KT 18/01 A2993 RMK A01 T01790006  RH  031%=      5-min Rain = 0
KCL1 101807Z 22008KT 18/01 A2993 RMK A01 T01790008  RH  031%=      5-min Rain = 0
KCL1 101808Z 22006KT 18/01 A2993 RMK A01 T01790006  RH  031%=      5-min Rain = 0
KCL1 101809Z 21007KT 18/01 A2993 RMK A01 T01770005  RH  031%=      5-min Rain = 0
KCL1 101810Z 20004KT 18/01 A2993 RMK A01 T01750006  RH  032%=      5-min Rain = 0
KCL1 101811Z 21003KT 18/01 A2993 RMK A01 T01750007  RH  032%=      5-min Rain = 0
KCL1 101812Z 21004KT 18/01 A2993 RMK A01 T01760008  RH  032%=      5-min Rain = 0
KCL1 101813Z 21005KT 18/01 A2993 RMK A01 T01760008  RH  032%=      5-min Rain = 0
KCL1 101814Z 20006KT 18/01 A2993 RMK A01 T01770006  RH  031%=      5-min Rain = 0
KCL1 101815Z 20007KT 18/00 A2993 RMK A01 T01780002  RH  030%=      5-min Rain = 0
KCL1 101816Z 20006KT 18/00 A2993 RMK A01 T01770003  RH  031%=      5-min Rain = 0
KCL1 101817Z 21004KT 18/01 A2993 RMK A01 T01760005  RH  031%=      5-min Rain = 0
KCL1 101818Z 21005KT 18/01 A2993 RMK A01 T01780007  RH  032%=      5-min Rain = 0
KCL1 101819Z 22008KT 18/01 A2993 RMK A01 T01780006  RH  031%=      5-min Rain = 0
KCL1 101820Z 19008KT 18/01 A2993 RMK A01 T01770007  RH  032%=      5-min Rain = 0
KCL1 101821Z 20007KT 18/01 A2993 RMK A01 T01780010  RH  032%=      5-min Rain = 0
KCL1 101822Z 21006KT 18/01 A2993 RMK A01 T01800011  RH  032%=      5-min Rain = 0
KCL1 101823Z 21005KT 18/01 A2993 RMK A01 T01800010  RH  032%=      5-min Rain = 0
KCL1 101824Z 23005G10KT 18/01 A2993 RMK A01 T01810010  RH  032%=      5-min Rain = 0
KCL1 101825Z 25009KT 18/01 A2993 RMK A01 T01810013  RH  032%=      5-min Rain = 0
KCL1 101826Z 22007KT 18/01 A2993 RMK A01 T01820013  RH  032%=      5-min Rain = 0
KCL1 101827Z 25007KT 18/01 A2993 RMK A01 T01830011  RH  032%=      5-min Rain = 0
KCL1 101828Z 23005KT 18/01 A2992 RMK A01 T01830008  RH  031%=      5-min Rain = 0
KCL1 101829Z 25008KT 19/01 A2992 RMK A01 T01850008  RH  030%=      5-min Rain = 0
KCL1 101830Z 25007KT 19/00 A2992 RMK A01 T01850004  RH  030%=      5-min Rain = 0
KCL1 101831Z 24004KT 19/01 A2992 RMK A01 T01850006  RH  030%=      5-min Rain = 0
KCL1 101832Z 24006KT 19/01 A2992 RMK A01 T01860005  RH  030%=      5-min Rain = 0
KCL1 101833Z 24006KT 19/00 A2992 RMK A01 T018700-0  RH  028%=      5-min Rain = 0
KCL1 101834Z 23006G11KT 19/00 A2992 RMK A01 T01860001  RH  029%=      5-min Rain = 0
KCL1 101835Z 21008KT 19/M00 A2992 RMK A01 T01861002  RH  028%=      5-min Rain = 0
KCL1 101836Z 23009KT 19/M00 A2992 RMK A01 T01851001  RH  028%=      5-min Rain = 0
KCL1 101837Z 24007KT 18/M00 A2992 RMK A01 T01841003  RH  028%=      5-min Rain = 0
KCL1 101838Z 23006KT 18/M00 A2992 RMK A01 T01841003  RH  028%=      5-min Rain = 0
KCL1 101839Z 22006KT 18/M00 A2992 RMK A01 T01841002  RH  028%=      5-min Rain = 0
KCL1 101840Z 21005KT 19/M00 A2992 RMK A01 T01851001  RH  029%=      5-min Rain = 0
KCL1 101841Z 21004KT 19/00 A2992 RMK A01 T018500-0  RH  029%=      5-min Rain = 0
KCL1 101842Z 25005KT 19/01 A2992 RMK A01 T01870005  RH  029%=      5-min Rain = 0
KCL1 101843Z 25005KT 19/01 A2991 RMK A01 T01900006  RH  029%=      5-min Rain = 0
KCL1 101844Z 25006KT 19/01 A2991 RMK A01 T01930006  RH  028%=      5-min Rain = 0
KCL1 101845Z 23008KT 19/00 A2991 RMK A01 T01940002  RH  027%=      5-min Rain = 0
KCL1 101846Z 24006KT 19/00 A2991 RMK A01 T01910000  RH  028%=      5-min Rain = 0
KCL1 101847Z 26005KT 19/M00 A2991 RMK A01 T01891001  RH  028%=      5-min Rain = 0
KCL1 101848Z 25007KT 19/00 A2991 RMK A01 T01880000  RH  028%=      5-min Rain = 0
KCL1 101849Z 24007KT 19/00 A2991 RMK A01 T01880003  RH  029%=      5-min Rain = 0
KCL1 101850Z 25005KT 19/00 A2991 RMK A01 T01890003  RH  029%=      5-min Rain = 0
KCL1 101851Z 25006KT 19/00 A2991 RMK A01 T01890003  RH  029%=      5-min Rain = 0
KCL1 101852Z 25006KT 19/00 A2991 RMK A01 T01880002  RH  028%=      5-min Rain = 0
KCL1 101853Z 26007KT 19/00 A2991 RMK A01 T01880003  RH  029%=      5-min Rain = 0
KCL1 101854Z 26007KT 19/00 A2991 RMK A01 T01880003  RH  029%=      5-min Rain = 0
KCL1 101855Z 26007KT 19/00 A2991 RMK A01 T01890001  RH  028%=      5-min Rain = 0
KCL1 101856Z 26006KT 19/00 A2991 RMK A01 T01890002  RH  029%=      5-min Rain = 0
KCL1 101857Z 27007KT 19/01 A299 RMK A01 T01900005  RH  029%=      5-min Rain = 0
KCL1 101858Z 26005KT 19/01 A299 RMK A01 T01910005  RH  029%=      5-min Rain = 0
KCL1 101859Z 24007KT 19/01 A299 RMK A01 T01930008  RH  029%=      5-min Rain = 0
KCL1 101900Z 23007KT 19/00 A299 RMK A01 T01940004  RH  028%=      5-min Rain = 0
KCL1 101901Z 23003KT 19/00 A299 RMK A01 T01910002  RH  028%=      5-min Rain = 0
KCL1 101902Z 23004KT 19/01 A299 RMK A01 T01890006  RH  029%=      5-min Rain = 0
KCL1 101903Z 22003KT 19/01 A299 RMK A01 T01910006  RH  029%=      5-min Rain = 0
KCL1 101904Z 22004KT 19/00 A299 RMK A01 T01920004  RH  028%=      5-min Rain = 0
KCL1 101905Z 23007KT 19/01 A299 RMK A01 T01940008  RH  029%=      5-min Rain = 0
KCL1 101906Z 22005KT 20/01 A299 RMK A01 T01950009  RH  029%=      5-min Rain = 0
KCL1 101907Z 22006KT 20/00 A299 RMK A01 T01960004  RH  028%=      5-min Rain = 0
KCL1 101908Z 21006KT 19/00 A299 RMK A01 T01940002  RH  028%=      5-min Rain = 0
KCL1 101909Z 22006KT 19/01 A299 RMK A01 T01930005  RH  028%=      5-min Rain = 0
KCL1 101910Z 21007KT 19/01 A299 RMK A01 T01940006  RH  028%=      5-min Rain = 0
KCL1 101911Z 20007KT 20/00 A299 RMK A01 T01950004  RH  028%=      5-min Rain = 0
KCL1 101912Z 21008KT 19/01 A299 RMK A01 T01940006  RH  028%=      5-min Rain = 0
KCL1 101913Z 21008KT 19/01 A299 RMK A01 T01940005  RH  028%=      5-min Rain = 0
KCL1 101914Z 21007KT 20/01 A299 RMK A01 T01950005  RH  028%=      5-min Rain = 0
KCL1 101915Z 21005KT 20/00 A299 RMK A01 T01950004  RH  028%=      5-min Rain = 0
KCL1 101916Z 24007KT 20/01 A299 RMK A01 T01960006  RH  028%=      5-min Rain = 0
KCL1 101917Z 23008KT 20/01 A2989 RMK A01 T01970008  RH  028%=      5-min Rain = 0
KCL1 101918Z 23007KT 20/01 A2989 RMK A01 T01970008  RH  028%=      5-min Rain = 0
KCL1 101919Z 24006G11KT 20/01 A2989 RMK A01 T01980007  RH  028%=      5-min Rain = 0
KCL1 101920Z 24009KT 20/01 A2989 RMK A01 T01970008  RH  028%=      5-min Rain = 0
KCL1 101921Z 25007KT 20/01 A2989 RMK A01 T01970008  RH  028%=      5-min Rain = 0
KCL1 101922Z 26008KT 20/01 A2989 RMK A01 T01980010  RH  028%=      5-min Rain = 0
KCL1 101923Z 26008KT 20/01 A2989 RMK A01 T01990009  RH  028%=      5-min Rain = 0
KCL1 101924Z 26009KT 20/01 A2989 RMK A01 T01990010  RH  028%=      5-min Rain = 0
KCL1 101925Z 26007KT 20/01 A2989 RMK A01 T01990011  RH  028%=      5-min Rain = 0
KCL1 101926Z 24005KT 20/01 A2989 RMK A01 T01990013  RH  029%=      5-min Rain = 0
KCL1 101927Z 25007KT 20/01 A2989 RMK A01 T02010013  RH  028%=      5-min Rain = 0
KCL1 101928Z 25009KT 20/01 A2989 RMK A01 T02020009  RH  028%=      5-min Rain = 0
KCL1 101929Z 23005KT 20/01 A2989 RMK A01 T02010011  RH  028%=      5-min Rain = 0
KCL1 101930Z 20008KT 20/01 A2989 RMK A01 T02010014  RH  029%=      5-min Rain = 0
KCL1 101931Z 18006KT 20/01 A2989 RMK A01 T01990014  RH  029%=      5-min Rain = 0
KCL1 101932Z 22004KT 20/02 A2989 RMK A01 T01970018  RH  030%=      5-min Rain = 0
KCL1 101933Z 22005KT 20/02 A2989 RMK A01 T01980018  RH  030%=      5-min Rain = 0
KCL1 101934Z 24005KT 20/02 A2989 RMK A01 T01980019  RH  030%=      5-min Rain = 0
KCL1 101935Z 22004KT 20/02 A2989 RMK A01 T01980020  RH  031%=      5-min Rain = 0
KCL1 101936Z 23005KT 20/02 A2989 RMK A01 T01980020  RH  031%=      5-min Rain = 0
KCL1 101937Z 21008KT 20/02 A2989 RMK A01 T01990018  RH  030%=      5-min Rain = 0
KCL1 101938Z 20008KT 20/02 A2989 RMK A01 T01980015  RH  029%=      5-min Rain = 0
KCL1 101939Z 21007KT 20/02 A2988 RMK A01 T01960016  RH  030%=      5-min Rain = 0
KCL1 101940Z 21008KT 20/02 A2988 RMK A01 T01960016  RH  030%=      5-min Rain = 0
KCL1 101941Z 21008KT 20/02 A2988 RMK A01 T01960015  RH  030%=      5-min Rain = 0
KCL1 101942Z 20007KT 20/02 A2988 RMK A01 T01960017  RH  030%=      5-min Rain = 0
KCL1 101943Z 22007KT 20/02 A2988 RMK A01 T01960016  RH  030%=      5-min Rain = 0
KCL1 101944Z 21008KT 19/02 A2988 RMK A01 T01940015  RH  030%=      5-min Rain = 0
KCL1 101945Z 22007KT 19/02 A2988 RMK A01 T01940017  RH  031%=      5-min Rain = 0
KCL1 101946Z 22008KT 19/02 A2988 RMK A01 T01940016  RH  031%=      5-min Rain = 0
KCL1 101947Z 21007KT 19/02 A2988 RMK A01 T01930015  RH  030%=      5-min Rain = 0
KCL1 101948Z 22006KT 19/02 A2988 RMK A01 T01930016  RH  031%=      5-min Rain = 0
KCL1 101949Z 22008KT 19/02 A2988 RMK A01 T01930017  RH  031%=      5-min Rain = 0
KCL1 101950Z 22005KT 19/01 A2988 RMK A01 T01930014  RH  030%=      5-min Rain = 0
KCL1 101951Z 24005KT 19/02 A2988 RMK A01 T01920016  RH  031%=      5-min Rain = 0
KCL1 101952Z 21008KT 19/02 A2988 RMK A01 T01920016  RH  031%=      5-min Rain = 0
KCL1 101953Z 20007KT 19/01 A2988 RMK A01 T01920013  RH  030%=      5-min Rain = 0
KCL1 101954Z 21007KT 19/01 A2988 RMK A01 T01910014  RH  030%=      5-min Rain = 0
KCL1 101955Z 22008KT 19/01 A2988 RMK A01 T01920012  RH  030%=      5-min Rain = 0
KCL1 101956Z 22008KT 19/01 A2988 RMK A01 T01910011  RH  030%=      5-min Rain = 0
KCL1 101957Z 22009KT 19/01 A2987 RMK A01 T01920009  RH  029%=      5-min Rain = 0
KCL1 101958Z 22008KT 19/01 A2987 RMK A01 T01910008  RH  029%=      5-min Rain = 0
KCL1 101959Z 22006KT 19/01 A2987 RMK A01 T01910007  RH  029%=      5-min Rain = 0
KCL1 102000Z 24008KT 19/01 A2987 RMK A01 T01910008  RH  029%=      5-min Rain = 0
KCL1 102001Z 22007KT 19/01 A2987 RMK A01 T01910008  RH  029%=      5-min Rain = 0
KCL1 102002Z 22006KT 19/01 A2987 RMK A01 T01910007  RH  029%=      5-min Rain = 0
KCL1 102003Z 22008KT 19/01 A2987 RMK A01 T01910006  RH  029%=      5-min Rain = 0
KCL1 102004Z 22007KT 19/01 A2987 RMK A01 T01910005  RH  029%=      5-min Rain = 0
KCL1 102005Z 21008KT 19/00 A2987 RMK A01 T01920004  RH  028%=      5-min Rain = 0
KCL1 102006Z 22008KT 19/00 A2987 RMK A01 T01910003  RH  028%=      5-min Rain = 0
KCL1 102007Z 21006KT 19/00 A2987 RMK A01 T01920002  RH  028%=      5-min Rain = 0
KCL1 102008Z 22006KT 19/00 A2987 RMK A01 T01930003  RH  028%=      5-min Rain = 0
KCL1 102009Z 22008KT 19/00 A2987 RMK A01 T01940002  RH  028%=      5-min Rain = 0
KCL1 102010Z 21008KT 20/00 A2987 RMK A01 T01950003  RH  027%=      5-min Rain = 0
KCL1 102011Z 23006G11KT 20/00 A2987 RMK A01 T01960002  RH  027%=      5-min Rain = 0
KCL1 102012Z 22007KT 20/00 A2987 RMK A01 T019700-0  RH  027%=      5-min Rain = 0
KCL1 102013Z 21006KT 20/00 A2986 RMK A01 T01970001  RH  027%=      5-min Rain = 0
KCL1 102014Z 25007KT 20/00 A2986 RMK A01 T01970002  RH  027%=      5-min Rain = 0
KCL1 102015Z 26005KT 20/M00 A2986 RMK A01 T01981001  RH  026%=      5-min Rain = 0
KCL1 102016Z 24005KT 20/00 A2986 RMK A01 T01980001  RH  027%=      5-min Rain = 0
KCL1 102017Z 23007KT 20/00 A2986 RMK A01 T01980001  RH  027%=      5-min Rain = 0
KCL1 102018Z 22007KT 20/M00 A2986 RMK A01 T01971001  RH  027%=      5-min Rain = 0
KCL1 102019Z 24007KT 20/00 A2986 RMK A01 T01960002  RH  027%=      5-min Rain = 0
KCL1 102020Z 25006KT 20/00 A2986 RMK A01 T01950000  RH  027%=      5-min Rain = 0
KCL1 102021Z 23005KT 20/00 A2986 RMK A01 T01950001  RH  027%=      5-min Rain = 0
KCL1 102022Z 22007KT 20/00 A2986 RMK A01 T01950002  RH  027%=      5-min Rain = 0
KCL1 102023Z 22006KT 19/00 A2986 RMK A01 T01940004  RH  028%=      5-min Rain = 0
KCL1 102024Z 22010KT 19/01 A2986 RMK A01 T01940005  RH  028%=      5-min Rain = 0
KCL1 102025Z 22009KT 19/00 A2986 RMK A01 T01940004  RH  028%=      5-min Rain = 0
KCL1 102026Z 22011KT 19/00 A2986 RMK A01 T01940004  RH  028%=      5-min Rain = 0
KCL1 102027Z 22009KT 19/00 A2986 RMK A01 T01930002  RH  028%=      5-min Rain = 0
KCL1 102028Z 22008KT 19/00 A2986 RMK A01 T01920003  RH  028%=      5-min Rain = 0
KCL1 102029Z 22008KT 19/01 A2986 RMK A01 T01930006  RH  029%=      5-min Rain = 0
KCL1 102030Z 22010KT 20/01 A2986 RMK A01 T01950009  RH  029%=      5-min Rain = 0
KCL1 102031Z 22009KT 20/01 A2986 RMK A01 T01960007  RH  028%=      5-min Rain = 0
KCL1 102032Z 21008KT 20/01 A2986 RMK A01 T01970009  RH  028%=      5-min Rain = 0
KCL1 102033Z 22008KT 20/01 A2986 RMK A01 T01980011  RH  029%=      5-min Rain = 0
KCL1 102034Z 22007KT 20/01 A2986 RMK A01 T01990010  RH  028%=      5-min Rain = 0
KCL1 102035Z 22008KT 20/01 A2986 RMK A01 T01990010  RH  028%=      5-min Rain = 0
KCL1 102036Z 23008KT 20/01 A2986 RMK A01 T02000010  RH  028%=      5-min Rain = 0
KCL1 102037Z 22007KT 20/01 A2986 RMK A01 T02000011  RH  028%=      5-min Rain = 0
KCL1 102038Z 23008KT 20/01 A2986 RMK A01 T02010014  RH  029%=      5-min Rain = 0
KCL1 102039Z 25008KT 20/02 A2986 RMK A01 T02040015  RH  028%=      5-min Rain = 0
KCL1 102040Z 23007KT 21/01 A2986 RMK A01 T02050014  RH  028%=      5-min Rain = 0
KCL1 102041Z 24007KT 21/01 A2986 RMK A01 T02060013  RH  028%=      5-min Rain = 0
KCL1 102042Z 23005KT 21/01 A2986 RMK A01 T02070012  RH  027%=      5-min Rain = 0
KCL1 102043Z 23008KT 21/01 A2986 RMK A01 T02080013  RH  027%=      5-min Rain = 0
KCL1 102044Z 24008KT 21/01 A2986 RMK A01 T02080009  RH  027%=      5-min Rain = 0
KCL1 102045Z 24006KT 21/01 A2986 RMK A01 T02060009  RH  027%=      5-min Rain = 0
KCL1 102046Z 25006KT 21/01 A2986 RMK A01 T02060012  RH  027%=      5-min Rain = 0
KCL1 102047Z 26009KT 21/01 A2986 RMK A01 T02080012  RH  027%=      5-min Rain = 0
KCL1 102048Z 24009KT 21/01 A2986 RMK A01 T02090010  RH  027%=      5-min Rain = 0
KCL1 102049Z 23011KT 21/01 A2986 RMK A01 T02090010  RH  027%=      5-min Rain = 0
KCL1 102050Z 24008KT 21/01 A2985 RMK A01 T02090006  RH  026%=      5-min Rain = 0
KCL1 102051Z 24009G14KT 21/01 A2985 RMK A01 T02090007  RH  026%=      5-min Rain = 0
KCL1 102052Z 23012KT 21/01 A2985 RMK A01 T02090006  RH  026%=      5-min Rain = 0
KCL1 102053Z 24010KT 21/01 A2985 RMK A01 T02090006  RH  026%=      5-min Rain = 0
KCL1 102054Z 24008KT 21/01 A2985 RMK A01 T02090006  RH  026%=      5-min Rain = 0
KCL1 102055Z 23008KT 21/01 A2985 RMK A01 T02090006  RH  026%=      5-min Rain = 0
KCL1 102056Z 23010KT 21/01 A2985 RMK A01 T02090006  RH  026%=      5-min Rain = 0
KCL1 102057Z 23010KT 21/00 A2985 RMK A01 T02090003  RH  025%=      5-min Rain = 0
KCL1 102058Z 24010KT 21/M00 A2985 RMK A01 T02081001  RH  025%=      5-min Rain = 0
KCL1 102059Z 24010KT 21/M00 A2985 RMK A01 T02081001  RH  025%=      5-min Rain = 0
KCL1 102100Z 24011KT 21/00 A2985 RMK A01 T020800-0  RH  025%=      5-min Rain = 0
KCL1 102101Z 24010G16KT 21/M00 A2985 RMK A01 T02091001  RH  024%=      5-min Rain = 0
KCL1 102102Z 24013KT 21/M00 A2985 RMK A01 T02101004  RH  024%=      5-min Rain = 0
KCL1 102103Z 24011KT 21/M01 A2985 RMK A01 T02111005  RH  024%=      5-min Rain = 0
KCL1 102104Z 24010KT 21/M01 A2985 RMK A01 T02111005  RH  024%=      5-min Rain = 0
KCL1 102105Z 25009KT 21/M00 A2985 RMK A01 T02111004  RH  024%=      5-min Rain = 0
KCL1 102106Z 24008KT 21/M00 A2985 RMK A01 T02111004  RH  024%=      5-min Rain = 0
KCL1 102107Z 25009KT 21/M00 A2985 RMK A01 T02121002  RH  024%=      5-min Rain = 0
KCL1 102108Z 25008KT 21/M00 A2985 RMK A01 T02121002  RH  024%=      5-min Rain = 0
KCL1 102109Z 25010KT 21/M00 A2985 RMK A01 T02131004  RH  024%=      5-min Rain = 0
KCL1 102110Z 24010KT 21/M00 A2985 RMK A01 T02131003  RH  024%=      5-min Rain = 0
KCL1 102111Z 24009KT 21/M01 A2985 RMK A01 T02131005  RH  023%=      5-min Rain = 0
KCL1 102112Z 23009G14KT 21/M01 A2985 RMK A01 T02131005  RH  023%=      5-min Rain = 0
KCL1 102113Z 24007KT 21/M01 A2985 RMK A01 T02131005  RH  023%=      5-min Rain = 0
KCL1 102114Z 24009KT 21/M00 A2985 RMK A01 T02141004  RH  023%=      5-min Rain = 0
KCL1 102115Z 24008KT 22/M01 A2985 RMK A01 T02151007  RH  023%=      5-min Rain = 0
KCL1 102116Z 23009KT 22/M01 A2985 RMK A01 T02161005  RH  023%=      5-min Rain = 0
KCL1 102117Z 24009KT 22/M01 A2985 RMK A01 T02161007  RH  023%=      5-min Rain = 0
KCL1 102118Z 25006KT 22/M01 A2985 RMK A01 T02161006  RH  023%=      5-min Rain = 0
KCL1 102119Z 24006KT 22/M01 A2985 RMK A01 T02171006  RH  022%=      5-min Rain = 0
KCL1 102120Z 25007KT 22/M01 A2985 RMK A01 T02171008  RH  022%=      5-min Rain = 0
KCL1 102121Z 23007KT 22/M01 A2985 RMK A01 T02161008  RH  022%=      5-min Rain = 0
KCL1 102122Z 23008KT 22/M01 A2985 RMK A01 T02151008  RH  022%=      5-min Rain = 0
KCL1 102123Z 24008KT 22/M01 A2985 RMK A01 T02151009  RH  022%=      5-min Rain = 0
KCL1 102124Z 24009KT 21/M01 A2985 RMK A01 T02141010  RH  022%=      5-min Rain = 0
KCL1 102125Z 24008KT 22/M01 A2985 RMK A01 T02151011  RH  022%=      5-min Rain = 0
KCL1 102126Z 24010KT 21/M01 A2985 RMK A01 T02141011  RH  022%=      5-min Rain = 0
KCL1 102127Z 25007KT 21/M01 A2985 RMK A01 T02141012  RH  022%=      5-min Rain = 0
KCL1 102128Z 24008KT 22/M01 A2985 RMK A01 T02151011  RH  022%=      5-min Rain = 0
KCL1 102129Z 24008KT 21/M01 A2985 RMK A01 T02141012  RH  022%=      5-min Rain = 0
KCL1 102130Z 24008KT 21/M01 A2985 RMK A01 T02141012  RH  022%=      5-min Rain = 0
KCL1 102131Z 24009KT 21/M01 A2985 RMK A01 T02141013  RH  022%=      5-min Rain = 0
KCL1 102132Z 24011KT 21/M01 A2985 RMK A01 T02141014  RH  022%=      5-min Rain = 0
KCL1 102133Z 24008KT 21/M01 A2985 RMK A01 T02131014  RH  022%=      5-min Rain = 0
KCL1 102134Z 23009KT 21/M01 A2985 RMK A01 T02131013  RH  022%=      5-min Rain = 0
KCL1 102135Z 25007KT 21/M01 A2985 RMK A01 T02131014  RH  022%=      5-min Rain = 0
KCL1 102136Z 25008KT 21/M01 A2985 RMK A01 T02141013  RH  022%=      5-min Rain = 0
KCL1 102137Z 23008KT 21/M01 A2984 RMK A01 T02141013  RH  022%=      5-min Rain = 0
KCL1 102138Z 23008KT 22/M01 A2984 RMK A01 T02151013  RH  022%=      5-min Rain = 0
KCL1 102139Z 23007KT 22/M01 A2984 RMK A01 T02151013  RH  022%=      5-min Rain = 0
KCL1 102140Z 23007KT 22/M01 A2984 RMK A01 T02151013  RH  022%=      5-min Rain = 0
KCL1 102141Z 24006KT 22/M01 A2984 RMK A01 T02151013  RH  022%=      5-min Rain = 0
KCL1 102142Z 24004KT 22/M01 A2984 RMK A01 T02151012  RH  022%=      5-min Rain = 0
KCL1 102143Z 23005KT 22/M01 A2984 RMK A01 T02151010  RH  022%=      5-min Rain = 0
KCL1 102144Z 23005KT 22/M01 A2984 RMK A01 T02151011  RH  022%=      5-min Rain = 0
KCL1 102145Z 24005KT 22/M01 A2984 RMK A01 T02151010  RH  022%=      5-min Rain = 0
KCL1 102146Z 23007KT 22/M01 A2984 RMK A01 T02151010  RH  022%=      5-min Rain = 0
KCL1 102147Z 24005KT 21/M01 A2984 RMK A01 T02141012  RH  022%=      5-min Rain = 0
KCL1 102148Z 25006KT 21/M01 A2984 RMK A01 T02131011  RH  022%=      5-min Rain = 0
KCL1 102149Z 25007KT 21/M01 A2984 RMK A01 T02121010  RH  023%=      5-min Rain = 0
KCL1 102150Z 25006KT 21/M01 A2984 RMK A01 T02121011  RH  022%=      5-min Rain = 0
KCL1 102151Z 26007KT 21/M01 A2984 RMK A01 T02121010  RH  023%=      5-min Rain = 0
KCL1 102152Z 26006KT 21/M01 A2984 RMK A01 T02111010  RH  023%=      5-min Rain = 0
KCL1 102153Z 26005KT 21/M01 A2984 RMK A01 T02111009  RH  023%=      5-min Rain = 0
KCL1 102154Z 26006KT 21/M01 A2984 RMK A01 T02111009  RH  023%=      5-min Rain = 0
KCL1 102155Z 27007KT 21/M01 A2984 RMK A01 T02101008  RH  023%=      5-min Rain = 0
KCL1 102156Z 27007KT 21/M01 A2984 RMK A01 T02101008  RH  023%=      5-min Rain = 0
KCL1 102157Z 27006KT 21/M01 A2984 RMK A01 T02101008  RH  023%=      5-min Rain = 0
KCL1 102158Z 26008KT 21/M01 A2984 RMK A01 T02111007  RH  023%=      5-min Rain = 0
KCL1 102159Z 27008KT 21/M01 A2984 RMK A01 T02101007  RH  023%=      5-min Rain = 0
KCL1 102200Z 26009KT 21/M01 A2984 RMK A01 T02101008  RH  023%=      5-min Rain = 0
KCL1 102201Z 26007KT 21/M01 A2984 RMK A01 T02101009  RH  023%=      5-min Rain = 0
KCL1 102202Z 25008KT 21/M01 A2984 RMK A01 T02101007  RH  023%=      5-min Rain = 0
KCL1 102203Z 26008KT 21/M01 A2984 RMK A01 T02091009  RH  023%=      5-min Rain = 0
KCL1 102204Z 26008KT 21/M01 A2984 RMK A01 T02091009  RH  023%=      5-min Rain = 0
KCL1 102205Z 26007KT 21/M01 A2984 RMK A01 T02091009  RH  023%=      5-min Rain = 0
KCL1 102206Z 27008KT 21/M01 A2984 RMK A01 T02091009  RH  023%=      5-min Rain = 0
KCL1 102207Z 27009KT 21/M01 A2984 RMK A01 T02091009  RH  023%=      5-min Rain = 0
KCL1 102208Z 27009KT 21/M01 A2984 RMK A01 T02091009  RH  023%=      5-min Rain = 0
KCL1 102209Z 27008KT 21/M01 A2984 RMK A01 T02091007  RH  023%=      5-min Rain = 0
KCL1 102210Z 27006KT 21/M01 A2984 RMK A01 T02091007  RH  024%=      5-min Rain = 0
KCL1 102211Z 27007KT 21/M01 A2984 RMK A01 T02091007  RH  024%=      5-min Rain = 0
KCL1 102212Z 27008KT 21/M01 A2984 RMK A01 T02081007  RH  024%=      5-min Rain = 0
KCL1 102213Z 27007KT 21/M01 A2984 RMK A01 T02091006  RH  024%=      5-min Rain = 0
KCL1 102214Z 27007KT 21/M01 A2984 RMK A01 T02081006  RH  024%=      5-min Rain = 0
KCL1 102215Z 27007KT 21/M01 A2984 RMK A01 T02081007  RH  024%=      5-min Rain = 0
KCL1 102216Z 26007KT 21/M01 A2984 RMK A01 T02081007  RH  024%=      5-min Rain = 0
KCL1 102217Z 27007KT 21/M01 A2984 RMK A01 T02081006  RH  024%=      5-min Rain = 0
KCL1 102218Z 26006KT 21/M01 A2984 RMK A01 T02091006  RH  024%=      5-min Rain = 0
KCL1 102219Z 26005KT 21/M01 A2984 RMK A01 T02091006  RH  024%=      5-min Rain = 0
KCL1 102220Z 26006KT 21/M01 A2984 RMK A01 T02081006  RH  024%=      5-min Rain = 0
KCL1 102221Z 25005KT 21/M01 A2984 RMK A01 T02081005  RH  024%=      5-min Rain = 0
KCL1 102222Z 26006KT 21/M01 A2984 RMK A01 T02081005  RH  024%=      5-min Rain = 0
KCL1 102223Z 26005KT 21/M01 A2984 RMK A01 T02071005  RH  024%=      5-min Rain = 0
KCL1 102224Z 27005KT 21/M00 A2984 RMK A01 T02071003  RH  024%=      5-min Rain = 0
KCL1 102225Z 26006KT 21/M00 A2984 RMK A01 T02071002  RH  025%=      5-min Rain = 0
KCL1 102226Z 27007KT 21/M00 A2984 RMK A01 T02071003  RH  025%=      5-min Rain = 0
KCL1 102227Z 27008KT 21/M01 A2984 RMK A01 T02061005  RH  024%=      5-min Rain = 0
KCL1 102228Z 26007KT 21/M01 A2984 RMK A01 T02071005  RH  024%=      5-min Rain = 0
KCL1 102229Z 27006KT 21/M00 A2984 RMK A01 T02071004  RH  024%=      5-min Rain = 0
KCL1 102230Z 27006KT 21/M00 A2984 RMK A01 T02071003  RH  025%=      5-min Rain = 0
KCL1 102231Z 27006KT 21/M00 A2984 RMK A01 T02061004  RH  024%=      5-min Rain = 0
KCL1 102232Z 26007KT 21/M00 A2984 RMK A01 T02071004  RH  024%=      5-min Rain = 0
KCL1 102233Z 26007KT 21/M00 A2984 RMK A01 T02071004  RH  024%=      5-min Rain = 0
KCL1 102234Z 26007KT 21/M00 A2984 RMK A01 T02071004  RH  024%=      5-min Rain = 0
KCL1 102235Z 27007KT 21/M00 A2984 RMK A01 T02071004  RH  024%=      5-min Rain = 0
KCL1 102236Z 26006KT 21/M00 A2984 RMK A01 T02081004  RH  024%=      5-min Rain = 0
KCL1 102237Z 26006KT 21/M00 A2984 RMK A01 T02071003  RH  024%=      5-min Rain = 0
KCL1 102238Z 27006KT 21/M00 A2984 RMK A01 T02071002  RH  025%=      5-min Rain = 0
KCL1 102239Z 27006KT 21/M00 A2984 RMK A01 T02071001  RH  025%=      5-min Rain = 0
KCL1 102240Z 27007KT 21/00 A2984 RMK A01 T020800-0  RH  025%=      5-min Rain = 0
KCL1 102241Z 27007KT 21/M00 A2984 RMK A01 T02081002  RH  025%=      5-min Rain = 0
KCL1 102242Z 28006KT 21/M00 A2984 RMK A01 T02071002  RH  025%=      5-min Rain = 0
KCL1 102243Z 27007KT 21/M00 A2984 RMK A01 T02071002  RH  025%=      5-min Rain = 0
KCL1 102244Z 27007KT 21/M00 A2984 RMK A01 T02071003  RH  024%=      5-min Rain = 0
KCL1 102245Z 27006KT 21/M00 A2984 RMK A01 T02081002  RH  024%=      5-min Rain = 0
KCL1 102246Z 27005KT 21/M00 A2984 RMK A01 T02081001  RH  025%=      5-min Rain = 0
KCL1 102247Z 27006KT 21/00 A2984 RMK A01 T020900-0  RH  025%=      5-min Rain = 0
KCL1 102248Z 27005KT 21/M00 A2984 RMK A01 T02091003  RH  024%=      5-min Rain = 0
KCL1 102249Z 27005KT 21/M00 A2984 RMK A01 T02101002  RH  024%=      5-min Rain = 0
KCL1 102250Z 27004KT 21/M00 A2984 RMK A01 T02101001  RH  024%=      5-min Rain = 0
KCL1 102251Z 27006KT 21/M00 A2984 RMK A01 T02111001  RH  024%=      5-min Rain = 0
KCL1 102252Z 27005KT 21/M00 A2984 RMK A01 T02111002  RH  024%=      5-min Rain = 0
KCL1 102253Z 26005KT 21/M00 A2984 RMK A01 T02111001  RH  024%=      5-min Rain = 0
KCL1 102254Z 26005KT 21/M00 A2984 RMK A01 T02111001  RH  024%=      5-min Rain = 0
KCL1 102255Z 26005KT 21/M00 A2984 RMK A01 T02101001  RH  024%=      5-min Rain = 0
KCL1 102256Z 25004KT 21/M00 A2984 RMK A01 T02101002  RH  024%=      5-min Rain = 0
KCL1 102257Z 25003KT 21/M00 A2984 RMK A01 T02101001  RH  024%=      5-min Rain = 0
KCL1 102258Z 25003KT 21/00 A2984 RMK A01 T02100000  RH  025%=      5-min Rain = 0
KCL1 102259Z 25003KT 21/00 A2984 RMK A01 T021000-0  RH  025%=      5-min Rain = 0
KCL1 102300Z 25003KT 21/00 A2984 RMK A01 T02090000  RH  025%=      5-min Rain = 0
KCL1 102301Z 26003KT 21/00 A2984 RMK A01 T020900-0  RH  025%=      5-min Rain = 0
KCL1 102302Z 25003KT 21/M00 A2984 RMK A01 T02081001  RH  025%=      5-min Rain = 0
KCL1 102303Z 25002KT 21/M00 A2984 RMK A01 T02071001  RH  025%=      5-min Rain = 0
KCL1 102304Z 25003KT 21/00 A2984 RMK A01 T020600-0  RH  025%=      5-min Rain = 0
KCL1 102305Z 25003KT 21/00 A2984 RMK A01 T02050000  RH  025%=      5-min Rain = 0
KCL1 102306Z 25003KT 21/00 A2984 RMK A01 T02050000  RH  025%=      5-min Rain = 0
KCL1 102307Z 25003KT 20/00 A2983 RMK A01 T02040001  RH  026%=      5-min Rain = 0
KCL1 102308Z 25003KT 20/00 A2983 RMK A01 T02040000  RH  026%=      5-min Rain = 0
KCL1 102309Z 23002KT 20/00 A2983 RMK A01 T02030001  RH  026%=      5-min Rain = 0
KCL1 102310Z 23003KT 20/00 A2983 RMK A01 T02020002  RH  026%=      5-min Rain = 0
KCL1 102311Z 23002KT 20/00 A2983 RMK A01 T02010002  RH  026%=      5-min Rain = 0
KCL1 102312Z 23002KT 20/00 A2983 RMK A01 T02000002  RH  027%=      5-min Rain = 0
KCL1 102313Z 22002KT 20/00 A2983 RMK A01 T01990001  RH  027%=      5-min Rain = 0
KCL1 102314Z 23003KT 20/00 A2983 RMK A01 T01980001  RH  027%=      5-min Rain = 0
KCL1 102315Z 23002KT 20/00 A2983 RMK A01 T01980001  RH  027%=      5-min Rain = 0
KCL1 102316Z 23002KT 20/00 A2983 RMK A01 T01970000  RH  027%=      5-min Rain = 0
KCL1 102317Z 23003KT 20/00 A2983 RMK A01 T01970000  RH  027%=      5-min Rain = 0
KCL1 102318Z 23003KT 20/M00 A2983 RMK A01 T01961001  RH  027%=      5-min Rain = 0
KCL1 102319Z 24002KT 20/M00 A2983 RMK A01 T01961002  RH  026%=      5-min Rain = 0
KCL1 102320Z 24003KT 20/M00 A2983 RMK A01 T01961001  RH  027%=      5-min Rain = 0
KCL1 102321Z 24003KT 20/M00 A2983 RMK A01 T01961001  RH  027%=      5-min Rain = 0
KCL1 102322Z 23003KT 20/M00 A2983 RMK A01 T01961002  RH  026%=      5-min Rain = 0
KCL1 102323Z 25002KT 20/M00 A2983 RMK A01 T01961002  RH  026%=      5-min Rain = 0
KCL1 102324Z 24002KT 20/M00 A2983 RMK A01 T01971003  RH  026%=      5-min Rain = 0
KCL1 102325Z 24002KT 20/M00 A2983 RMK A01 T01981004  RH  026%=      5-min Rain = 0
KCL1 102326Z 25002KT 20/M00 A2983 RMK A01 T01981004  RH  026%=      5-min Rain = 0
KCL1 102327Z 25001KT 20/M00 A2983 RMK A01 T01991004  RH  026%=      5-min Rain = 0
KCL1 102328Z 25001KT 20/M00 A2983 RMK A01 T01991004  RH  026%=      5-min Rain = 0
KCL1 102329Z 25002KT 20/M00 A2983 RMK A01 T01991004  RH  026%=      5-min Rain = 0
KCL1 102330Z 24001KT 20/M00 A2983 RMK A01 T01991004  RH  026%=      5-min Rain = 0
KCL1 102331Z 25002KT 20/M00 A2983 RMK A01 T01991003  RH  026%=      5-min Rain = 0
KCL1 102332Z 25001KT 20/M00 A2983 RMK A01 T01991003  RH  026%=      5-min Rain = 0
KCL1 102333Z 26001KT 20/M00 A2983 RMK A01 T01981003  RH  026%=      5-min Rain = 0
KCL1 102334Z 26001KT 20/M00 A2983 RMK A01 T01981003  RH  026%=      5-min Rain = 0
KCL1 102335Z 27001KT 20/M00 A2983 RMK A01 T01981004  RH  026%=      5-min Rain = 0
KCL1 102336Z 28001KT 20/M00 A2983 RMK A01 T01971003  RH  026%=      5-min Rain = 0
KCL1 102337Z 29001KT 20/M00 A2983 RMK A01 T01961004  RH  026%=      5-min Rain = 0
KCL1 102338Z 29001KT 20/M00 A2983 RMK A01 T01951004  RH  026%=      5-min Rain = 0
KCL1 102339Z 29001KT 20/M00 A2983 RMK A01 T01951004  RH  026%=      5-min Rain = 0
KCL1 102340Z 29000KT 20/M00 A2983 RMK A01 T01951004  RH  026%=      5-min Rain = 0
KCL1 102341Z 29000KT 19/M01 A2983 RMK A01 T01941005  RH  026%=      5-min Rain = 0
KCL1 102342Z 29001KT 19/M01 A2983 RMK A01 T01941005  RH  026%=      5-min Rain = 0
KCL1 102343Z 29000KT 19/M00 A2983 RMK A01 T01941004  RH  026%=      5-min Rain = 0
KCL1 102344Z 30001KT 19/M00 A2983 RMK A01 T01941004  RH  026%=      5-min Rain = 0
KCL1 102345Z 31001KT 19/M01 A2983 RMK A01 T01941005  RH  026%=      5-min Rain = 0
KCL1 102346Z 32001KT 19/M01 A2983 RMK A01 T01941005  RH  026%=      5-min Rain = 0
KCL1 102347Z 32001KT 19/M01 A2983 RMK A01 T01931005  RH  026%=      5-min Rain = 0
KCL1 102348Z 31000KT 19/M01 A2983 RMK A01 T01921006  RH  026%=      5-min Rain = 0
KCL1 102349Z 31000KT 19/M01 A2983 RMK A01 T01921006  RH  026%=      5-min Rain = 0
KCL1 102350Z 31000KT 19/M01 A2983 RMK A01 T01921006  RH  026%=      5-min Rain = 0
KCL1 102351Z 31000KT 19/M01 A2983 RMK A01 T01921006  RH  026%=      5-min Rain = 0
KCL1 102352Z 31001KT 19/M01 A2983 RMK A01 T01921007  RH  026%=      5-min Rain = 0
KCL1 102353Z 31001KT 19/M01 A2983 RMK A01 T01921007  RH  026%=      5-min Rain = 0
KCL1 102354Z 30002KT 19/M01 A2983 RMK A01 T01921007  RH  026%=      5-min Rain = 0
KCL1 102355Z 29002KT 19/M01 A2983 RMK A01 T01931007  RH  026%=      5-min Rain = 0
KCL1 102356Z 27003KT 19/M01 A2983 RMK A01 T01931007  RH  026%=      5-min Rain = 0
KCL1 102357Z 28003KT 19/M01 A2983 RMK A01 T01931007  RH  026%=      5-min Rain = 0
KCL1 102358Z 28003KT 19/M01 A2983 RMK A01 T01921008  RH  026%=      5-min Rain = 0
KCL1 102359Z 29003KT 19/M01 A2983 RMK A01 T01921009  RH  026%=      5-min Rain = 0
KCL1 110000Z 30003KT 19/M01 A2983 RMK A01 T01921009  RH  026%=      5-min Rain = 0
KCL1 110001Z 32003KT 19/M01 A2983 RMK A01 T01931008  RH  026%=      5-min Rain = 0
KCL1 110002Z 32002KT 19/M01 A2983 RMK A01 T01931008  RH  026%=      5-min Rain = 0
KCL1 110003Z 32002KT 19/M01 A2983 RMK A01 T01921007  RH  026%=      5-min Rain = 0
KCL1 110004Z 32002KT 19/M01 A2983 RMK A01 T01911007  RH  026%=      5-min Rain = 0
KCL1 110005Z 30002KT 19/M01 A2983 RMK A01 T01911007  RH  026%=      5-min Rain = 0
KCL1 110006Z 29003KT 19/M01 A2983 RMK A01 T01901007  RH  026%=      5-min Rain = 0
KCL1 110007Z 29003KT 19/M01 A2983 RMK A01 T01891007  RH  027%=      5-min Rain = 0
KCL1 110008Z 30002KT 19/M01 A2983 RMK A01 T01891007  RH  027%=      5-min Rain = 0
KCL1 110009Z 30002KT 19/M01 A2983 RMK A01 T01891007  RH  027%=      5-min Rain = 0
KCL1 110010Z 31003KT 19/M01 A2983 RMK A01 T01891005  RH  027%=      5-min Rain = 0
KCL1 110011Z 32004KT 19/M00 A2983 RMK A01 T01871004  RH  028%=      5-min Rain = 0
KCL1 110012Z 32005KT 19/M00 A2983 RMK A01 T01851003  RH  028%=      5-min Rain = 0
KCL1 110013Z 33004KT 18/M00 A2983 RMK A01 T01821001  RH  029%=      5-min Rain = 0
KCL1 110014Z 33004KT 18/00 A2983 RMK A01 T01780002  RH  030%=      5-min Rain = 0
KCL1 110015Z 33005KT 17/00 A2983 RMK A01 T01730004  RH  032%=      5-min Rain = 0
KCL1 110016Z 33005KT 17/01 A2983 RMK A01 T01680006  RH  033%=      5-min Rain = 0
KCL1 110017Z 33005KT 17/01 A2983 RMK A01 T01650006  RH  034%=      5-min Rain = 0
KCL1 110018Z 33005KT 16/01 A2983 RMK A01 T01620007  RH  035%=      5-min Rain = 0
KCL1 110019Z 34005KT 16/01 A2983 RMK A01 T01600007  RH  035%=      5-min Rain = 0
KCL1 110020Z 34004KT 16/01 A2983 RMK A01 T01590007  RH  036%=      5-min Rain = 0
KCL1 110021Z 34004KT 16/01 A2983 RMK A01 T01580008  RH  036%=      5-min Rain = 0
KCL1 110022Z 34004KT 16/01 A2983 RMK A01 T01570007  RH  036%=      5-min Rain = 0
KCL1 110023Z 34004KT 16/01 A2983 RMK A01 T01570007  RH  036%=      5-min Rain = 0
KCL1 110024Z 34004KT 16/01 A2983 RMK A01 T01570008  RH  036%=      5-min Rain = 0
KCL1 110025Z 34004KT 16/01 A2983 RMK A01 T01560008  RH  037%=      5-min Rain = 0
KCL1 110026Z 34005KT 16/01 A2983 RMK A01 T01550009  RH  037%=      5-min Rain = 0
KCL1 110027Z 34006KT 15/01 A2983 RMK A01 T01540008  RH  037%=      5-min Rain = 0
KCL1 110028Z 33006KT 15/01 A2983 RMK A01 T01520008  RH  037%=      5-min Rain = 0
KCL1 110029Z 33007KT 15/01 A2983 RMK A01 T01510008  RH  038%=      5-min Rain = 0
KCL1 110030Z 33007KT 15/01 A2983 RMK A01 T01500008  RH  038%=      5-min Rain = 0
KCL1 110031Z 33007KT 15/01 A2983 RMK A01 T01490008  RH  038%=      5-min Rain = 0
KCL1 110032Z 33007KT 15/01 A2983 RMK A01 T01490008  RH  038%=      5-min Rain = 0
KCL1 110033Z 33008KT 15/01 A2983 RMK A01 T01490008  RH  038%=      5-min Rain = 0
KCL1 110034Z 33008KT 15/01 A2983 RMK A01 T01490008  RH  038%=      5-min Rain = 0
KCL1 110035Z 33008KT 15/01 A2983 RMK A01 T01490009  RH  039%=      5-min Rain = 0
KCL1 110036Z 33008KT 15/01 A2983 RMK A01 T01490009  RH  039%=      5-min Rain = 0
KCL1 110037Z 34009KT 15/01 A2983 RMK A01 T01480009  RH  039%=      5-min Rain = 0
KCL1 110038Z 34009KT 15/01 A2983 RMK A01 T01490010  RH  039%=      5-min Rain = 0
KCL1 110039Z 34009KT 15/01 A2983 RMK A01 T01490008  RH  038%=      5-min Rain = 0
KCL1 110040Z 34009KT 15/01 A2983 RMK A01 T01490007  RH  038%=      5-min Rain = 0
KCL1 110041Z 34009KT 15/01 A2983 RMK A01 T01490006  RH  038%=      5-min Rain = 0
KCL1 110042Z 34009KT 15/01 A2983 RMK A01 T01490006  RH  038%=      5-min Rain = 0
KCL1 110043Z 33008KT 15/01 A2983 RMK A01 T01490005  RH  037%=      5-min Rain = 0
KCL1 110044Z 33008KT 15/01 A2983 RMK A01 T01490005  RH  037%=      5-min Rain = 0
KCL1 110045Z 33008KT 15/00 A2983 RMK A01 T01490004  RH  037%=      5-min Rain = 0
KCL1 110046Z 33008KT 15/00 A2983 RMK A01 T01490003  RH  037%=      5-min Rain = 0
KCL1 110047Z 33008KT 15/00 A2983 RMK A01 T01480001  RH  037%=      5-min Rain = 0
KCL1 110048Z 33008KT 15/00 A2983 RMK A01 T01480000  RH  036%=      5-min Rain = 0
KCL1 110049Z 33008KT 15/M00 A2983 RMK A01 T01491001  RH  036%=      5-min Rain = 0
KCL1 110050Z 33008KT 15/M00 A2983 RMK A01 T01501003  RH  035%=      5-min Rain = 0
KCL1 110051Z 33008KT 15/M00 A2983 RMK A01 T01511003  RH  035%=      5-min Rain = 0
KCL1 110052Z 33008KT 15/M00 A2983 RMK A01 T01521003  RH  035%=      5-min Rain = 0
KCL1 110053Z 33007KT 15/M00 A2983 RMK A01 T01521003  RH  035%=      5-min Rain = 0
KCL1 110054Z 33008KT 15/M00 A2983 RMK A01 T01511004  RH  035%=      5-min Rain = 0
KCL1 110055Z 33008KT 15/M01 A2983 RMK A01 T01511005  RH  034%=      5-min Rain = 0
KCL1 110056Z 33007KT 15/M01 A2983 RMK A01 T01511005  RH  034%=      5-min Rain = 0
KCL1 110057Z 34007KT 15/M01 A2983 RMK A01 T01521005  RH  034%=      5-min Rain = 0
KCL1 110058Z 33007KT 15/M01 A2983 RMK A01 T01511005  RH  034%=      5-min Rain = 0
KCL1 110059Z 33006KT 15/M01 A2983 RMK A01 T01511005  RH  034%=      5-min Rain = 0
KCL1 110100Z 33006KT 15/M01 A2984 RMK A01 T01491005  RH  035%=      5-min Rain = 0
KCL1 110101Z 33006KT 15/M01 A2984 RMK A01 T01481005  RH  035%=      5-min Rain = 0
KCL1 110102Z 33006KT 15/M01 A2984 RMK A01 T01481006  RH  035%=      5-min Rain = 0
KCL1 110103Z 33007KT 15/M01 A2984 RMK A01 T01471005  RH  035%=      5-min Rain = 0
KCL1 110104Z 34006KT 15/M01 A2984 RMK A01 T01461005  RH  035%=      5-min Rain = 0
KCL1 110105Z 33007KT 15/M01 A2984 RMK A01 T01461005  RH  036%=      5-min Rain = 0
KCL1 110106Z 34006KT 14/M01 A2984 RMK A01 T01441005  RH  036%=      5-min Rain = 0
KCL1 110107Z 34007KT 14/M01 A2984 RMK A01 T01431005  RH  036%=      5-min Rain = 0
KCL1 110108Z 34008KT 14/M01 A2984 RMK A01 T01421005  RH  036%=      5-min Rain = 0
KCL1 110109Z 34009KT 14/M00 A2984 RMK A01 T01421004  RH  037%=      5-min Rain = 0
KCL1 110110Z 34009KT 14/M00 A2984 RMK A01 T01431003  RH  037%=      5-min Rain = 0
KCL1 110111Z 34009KT 14/M00 A2984 RMK A01 T01421003  RH  037%=      5-min Rain = 0
KCL1 110112Z 35008KT 14/M00 A2984 RMK A01 T01411003  RH  037%=      5-min Rain = 0
KCL1 110113Z 35006KT 14/M00 A2984 RMK A01 T01401003  RH  037%=      5-min Rain = 0
KCL1 110114Z 35007KT 14/M00 A2984 RMK A01 T01381001  RH  038%=      5-min Rain = 0
KCL1 110115Z 35009KT 13/M00 A2984 RMK A01 T01331001  RH  040%=      5-min Rain = 0
KCL1 110116Z 36008KT 13/M00 A2984 RMK A01 T01301001  RH  040%=      5-min Rain = 0
KCL1 110117Z 36009KT 13/00 A2984 RMK A01 T012800-0  RH  041%=      5-min Rain = 0
KCL1 110118Z 36009KT 13/00 A2984 RMK A01 T01250001  RH  042%=      5-min Rain = 0
KCL1 110119Z 00009KT 12/00 A2984 RMK A01 T01220001  RH  043%=      5-min Rain = 0
KCL1 110120Z 00008KT 12/00 A2984 RMK A01 T01190002  RH  045%=      5-min Rain = 0
KCL1 110121Z 01009KT 12/00 A2984 RMK A01 T01160002  RH  045%=      5-min Rain = 0
KCL1 110122Z 01009KT 12/00 A2984 RMK A01 T01150003  RH  046%=      5-min Rain = 0
KCL1 110123Z 01009KT 11/00 A2984 RMK A01 T01130003  RH  047%=      5-min Rain = 0
KCL1 110124Z 01009KT 11/00 A2984 RMK A01 T01120002  RH  047%=      5-min Rain = 0
KCL1 110125Z 01009KT 11/00 A2984 RMK A01 T01120001  RH  046%=      5-min Rain = 0
KCL1 110126Z 01009KT 11/M00 A2984 RMK A01 T01121001  RH  045%=      5-min Rain = 0
KCL1 110127Z 01009KT 11/M00 A2984 RMK A01 T01131002  RH  045%=      5-min Rain = 0
KCL1 110128Z 02009KT 11/M00 A2984 RMK A01 T01141003  RH  045%=      5-min Rain = 0
KCL1 110129Z 02009KT 11/M00 A2984 RMK A01 T01141003  RH  044%=      5-min Rain = 0
KCL1 110130Z 02009KT 12/M00 A2985 RMK A01 T01151003  RH  044%=      5-min Rain = 0
KCL1 110131Z 02009KT 12/M00 A2985 RMK A01 T01161002  RH  044%=      5-min Rain = 0
KCL1 110132Z 02009KT 12/M00 A2985 RMK A01 T01161003  RH  044%=      5-min Rain = 0
KCL1 110133Z 02009KT 12/M00 A2985 RMK A01 T01161003  RH  044%=      5-min Rain = 0
KCL1 110134Z 02010KT 12/M00 A2985 RMK A01 T01161003  RH  044%=      5-min Rain = 0
KCL1 110135Z 02010KT 12/M00 A2985 RMK A01 T01151003  RH  044%=      5-min Rain = 0
KCL1 110136Z 02010KT 12/M00 A2985 RMK A01 T01151002  RH  044%=      5-min Rain = 0
KCL1 110137Z 02010KT 12/M00 A2985 RMK A01 T01151003  RH  044%=      5-min Rain = 0
KCL1 110138Z 02010KT 12/M00 A2985 RMK A01 T01161003  RH  044%=      5-min Rain = 0
KCL1 110139Z 02010KT 12/M00 A2985 RMK A01 T01171003  RH  043%=      5-min Rain = 0
KCL1 110140Z 02010KT 12/M00 A2985 RMK A01 T01181003  RH  043%=      5-min Rain = 0
KCL1 110141Z 02009KT 12/M00 A2985 RMK A01 T01181003  RH  043%=      5-min Rain = 0
KCL1 110142Z 02009KT 12/M00 A2985 RMK A01 T01171003  RH  044%=      5-min Rain = 0
KCL1 110143Z 03010KT 12/M00 A2985 RMK A01 T01151003  RH  044%=      5-min Rain = 0
KCL1 110144Z 03009KT 11/M00 A2985 RMK A01 T01141003  RH  044%=      5-min Rain = 0
KCL1 110145Z 02009KT 11/M00 A2985 RMK A01 T01131002  RH  045%=      5-min Rain = 0
KCL1 110146Z 00008KT 11/M00 A2985 RMK A01 T01121001  RH  046%=      5-min Rain = 0
KCL1 110147Z 36009KT 11/M00 A2985 RMK A01 T01101001  RH  046%=      5-min Rain = 0
KCL1 110148Z 01008KT 11/M00 A2985 RMK A01 T01081002  RH  046%=      5-min Rain = 0
KCL1 110149Z 01008KT 11/M00 A2985 RMK A01 T01091003  RH  046%=      5-min Rain = 0
KCL1 110150Z 36008KT 11/M00 A2985 RMK A01 T01111002  RH  046%=      5-min Rain = 0
KCL1 110151Z 00008KT 11/M00 A2985 RMK A01 T01111003  RH  045%=      5-min Rain = 0
KCL1 110152Z 36008KT 11/M00 A2985 RMK A01 T01111003  RH  045%=      5-min Rain = 0
KCL1 110153Z 36009KT 11/M00 A2985 RMK A01 T01111003  RH  045%=      5-min Rain = 0
KCL1 110154Z 36009KT 11/M00 A2985 RMK A01 T01111003  RH  045%=      5-min Rain = 0
KCL1 110155Z 35009KT 11/M00 A2985 RMK A01 T01111003  RH  045%=      5-min Rain = 0
KCL1 110156Z 36009KT 11/M00 A2985 RMK A01 T01111003  RH  045%=      5-min Rain = 0
KCL1 110157Z 35010KT 11/M00 A2985 RMK A01 T01111003  RH  045%=      5-min Rain = 0
KCL1 110158Z 35010KT 11/M00 A2985 RMK A01 T01121003  RH  045%=      5-min Rain = 0
KCL1 110159Z 35010KT 11/M00 A2985 RMK A01 T01121003  RH  045%=      5-min Rain = 0
KCL1 110200Z 35010KT 11/M00 A2985 RMK A01 T01111003  RH  045%=      5-min Rain = 0
KCL1 110201Z 35010KT 11/M00 A2985 RMK A01 T01101004  RH  045%=      5-min Rain = 0
KCL1 110202Z 35010KT 11/M00 A2985 RMK A01 T01091004  RH  046%=      5-min Rain = 0
KCL1 110203Z 35010KT 11/M00 A2985 RMK A01 T01081004  RH  046%=      5-min Rain = 0
KCL1 110204Z 36010KT 11/M00 A2985 RMK A01 T01081004  RH  046%=      5-min Rain = 0
KCL1 110205Z 36010KT 11/M00 A2985 RMK A01 T01081004  RH  046%=      5-min Rain = 0
KCL1 110206Z 36009KT 11/M00 A2985 RMK A01 T01091004  RH  046%=      5-min Rain = 0
KCL1 110207Z 36010KT 11/M00 A2985 RMK A01 T01091004  RH  045%=      5-min Rain = 0
KCL1 110208Z 36010KT 11/M00 A2985 RMK A01 T01101004  RH  045%=      5-min Rain = 0
KCL1 110209Z 36010KT 11/M00 A2985 RMK A01 T01111004  RH  045%=      5-min Rain = 0
KCL1 110210Z 36010KT 11/M00 A2985 RMK A01 T01111004  RH  045%=      5-min Rain = 0
KCL1 110211Z 35010KT 11/M00 A2985 RMK A01 T01111004  RH  045%=      5-min Rain = 0
KCL1 110212Z 35010KT 11/M00 A2985 RMK A01 T01101004  RH  045%=      5-min Rain = 0
KCL1 110213Z 35010KT 11/M00 A2985 RMK A01 T01091004  RH  045%=      5-min Rain = 0
KCL1 110214Z 35010KT 11/M00 A2985 RMK A01 T01081004  RH  046%=      5-min Rain = 0
KCL1 110215Z 35010KT 11/M00 A2985 RMK A01 T01071004  RH  046%=      5-min Rain = 0
KCL1 110216Z 35010KT 11/M00 A2985 RMK A01 T01071004  RH  046%=      5-min Rain = 0
KCL1 110217Z 35011KT 11/M01 A2985 RMK A01 T01071005  RH  046%=      5-min Rain = 0
KCL1 110218Z 35011KT 11/M01 A2985 RMK A01 T01071005  RH  046%=      5-min Rain = 0
KCL1 110219Z 35010KT 11/M01 A2985 RMK A01 T01071005  RH  046%=      5-min Rain = 0
KCL1 110220Z 35010KT 11/M00 A2985 RMK A01 T01071004  RH  046%=      5-min Rain = 0
KCL1 110221Z 35011KT 11/M01 A2985 RMK A01 T01061005  RH  046%=      5-min Rain = 0
KCL1 110222Z 35011KT 11/M01 A2985 RMK A01 T01061005  RH  046%=      5-min Rain = 0
KCL1 110223Z 35011KT 11/M01 A2985 RMK A01 T01061005  RH  046%=      5-min Rain = 0
KCL1 110224Z 35010KT 11/M01 A2985 RMK A01 T01071005  RH  046%=      5-min Rain = 0
KCL1 110225Z 35011KT 11/M01 A2985 RMK A01 T01071005  RH  046%=      5-min Rain = 0
KCL1 110226Z 35011KT 11/M01 A2985 RMK A01 T01071006  RH  046%=      5-min Rain = 0
KCL1 110227Z 35010KT 11/M01 A2985 RMK A01 T01081006  RH  045%=      5-min Rain = 0
KCL1 110228Z 35011KT 11/M01 A2985 RMK A01 T01091007  RH  045%=      5-min Rain = 0
KCL1 110229Z 35010KT 11/M01 A2985 RMK A01 T01111007  RH  044%=      5-min Rain = 0
KCL1 110230Z 35010KT 11/M01 A2985 RMK A01 T01111007  RH  044%=      5-min Rain = 0
KCL1 110231Z 35011KT 11/M01 A2985 RMK A01 T01111007  RH  044%=      5-min Rain = 0
KCL1 110232Z 35011KT 11/M01 A2985 RMK A01 T01101007  RH  044%=      5-min Rain = 0
KCL1 110233Z 35011KT 11/M01 A2985 RMK A01 T01091007  RH  044%=      5-min Rain = 0
KCL1 110234Z 35011KT 11/M01 A2985 RMK A01 T01091007  RH  045%=      5-min Rain = 0
KCL1 110235Z 35011KT 11/M01 A2985 RMK A01 T01091008  RH  045%=      5-min Rain = 0
KCL1 110236Z 35011KT 11/M01 A2985 RMK A01 T01091008  RH  044%=      5-min Rain = 0
KCL1 110237Z 35011KT 11/M01 A2985 RMK A01 T01091009  RH  044%=      5-min Rain = 0
KCL1 110238Z 35012KT 11/M01 A2985 RMK A01 T01111009  RH  044%=      5-min Rain = 0
KCL1 110239Z 35011KT 11/M01 A2985 RMK A01 T01111009  RH  043%=      5-min Rain = 0
KCL1 110240Z 35011KT 11/M01 A2985 RMK A01 T01111009  RH  043%=      5-min Rain = 0
KCL1 110241Z 36011KT 11/M01 A2985 RMK A01 T01111009  RH  043%=      5-min Rain = 0
KCL1 110242Z 36011KT 11/M01 A2985 RMK A01 T01111009  RH  043%=      5-min Rain = 0
KCL1 110243Z 00011KT 11/M01 A2985 RMK A01 T01121009  RH  043%=      5-min Rain = 0
KCL1 110244Z 00011KT 11/M01 A2985 RMK A01 T01141009  RH  042%=      5-min Rain = 0
KCL1 110245Z 00010KT 11/M01 A2985 RMK A01 T01141010  RH  042%=      5-min Rain = 0
KCL1 110246Z 00010KT 11/M01 A2985 RMK A01 T01141009  RH  042%=      5-min Rain = 0
KCL1 110247Z 00010KT 11/M01 A2985 RMK A01 T01131010  RH  043%=      5-min Rain = 0
KCL1 110248Z 00010KT 11/M01 A2985 RMK A01 T01111010  RH  043%=      5-min Rain = 0
KCL1 110249Z 00010KT 11/M01 A2985 RMK A01 T01101010  RH  043%=      5-min Rain = 0
KCL1 110250Z 00010KT 11/M01 A2985 RMK A01 T01111010  RH  043%=      5-min Rain = 0
KCL1 110251Z 00011KT 11/M01 A2984 RMK A01 T01111010  RH  043%=      5-min Rain = 0
KCL1 110252Z 00011KT 11/M01 A2984 RMK A01 T01111010  RH  043%=      5-min Rain = 0
KCL1 110253Z 35012KT 11/M01 A2984 RMK A01 T01101009  RH  043%=      5-min Rain = 0
KCL1 110254Z 35011KT 11/M01 A2984 RMK A01 T01081009  RH  044%=      5-min Rain = 0
KCL1 110255Z 35012KT 11/M01 A2985 RMK A01 T01051009  RH  045%=      5-min Rain = 0
KCL1 110256Z 35011KT 10/M01 A2985 RMK A01 T01021009  RH  046%=      5-min Rain = 0
KCL1 110257Z 35011KT 10/M01 A2985 RMK A01 T00981009  RH  047%=      5-min Rain = 0
KCL1 110258Z 34011KT 10/M01 A2985 RMK A01 T00971008  RH  048%=      5-min Rain = 0
KCL1 110259Z 35012KT 10/M01 A2985 RMK A01 T00971008  RH  048%=      5-min Rain = 0
KCL1 110300Z 35012KT 10/M01 A2985 RMK A01 T00971008  RH  048%=      5-min Rain = 0
KCL1 110301Z 35011KT 10/M01 A2985 RMK A01 T00991008  RH  047%=      5-min Rain = 0
KCL1 110302Z 35011KT 10/M01 A2985 RMK A01 T01001008  RH  047%=      5-min Rain = 0
KCL1 110303Z 35011KT 10/M01 A2985 RMK A01 T01001008  RH  047%=      5-min Rain = 0
KCL1 110304Z 35011KT 10/M01 A2985 RMK A01 T01001008  RH  047%=      5-min Rain = 0
KCL1 110305Z 35011KT 10/M01 A2985 RMK A01 T00991008  RH  047%=      5-min Rain = 0
KCL1 110306Z 35012KT 10/M01 A2985 RMK A01 T00991008  RH  048%=      5-min Rain = 0
KCL1 110307Z 35011KT 10/M01 A2985 RMK A01 T00981007  RH  048%=      5-min Rain = 0
KCL1 110308Z 35012KT 10/M01 A2985 RMK A01 T00961007  RH  049%=      5-min Rain = 0
KCL1 110309Z 36011KT 10/M01 A2985 RMK A01 T00961007  RH  049%=      5-min Rain = 0
KCL1 110310Z 35011KT 10/M01 A2985 RMK A01 T00961007  RH  048%=      5-min Rain = 0
KCL1 110311Z 35012KT 10/M01 A2985 RMK A01 T00971007  RH  048%=      5-min Rain = 0
KCL1 110312Z 35012KT 10/M01 A2985 RMK A01 T00981007  RH  048%=      5-min Rain = 0
KCL1 110313Z 35012KT 10/M01 A2985 RMK A01 T00981007  RH  048%=      5-min Rain = 0
KCL1 110314Z 35012KT 10/M01 A2985 RMK A01 T00991007  RH  047%=      5-min Rain = 0
KCL1 110315Z 35012KT 10/M01 A2985 RMK A01 T01001007  RH  047%=      5-min Rain = 0
KCL1 110316Z 35011KT 10/M01 A2985 RMK A01 T01001008  RH  047%=      5-min Rain = 0
KCL1 110317Z 35011KT 10/M01 A2985 RMK A01 T01001007  RH  047%=      5-min Rain = 0
KCL1 110318Z 35011KT 10/M01 A2985 RMK A01 T01001007  RH  047%=      5-min Rain = 0
KCL1 110319Z 35011KT 10/M01 A2985 RMK A01 T00991007  RH  048%=      5-min Rain = 0
KCL1 110320Z 35011KT 10/M01 A2985 RMK A01 T00991007  RH  048%=      5-min Rain = 0
KCL1 110321Z 35011KT 10/M01 A2985 RMK A01 T00981007  RH  048%=      5-min Rain = 0
KCL1 110322Z 36011KT 10/M01 A2985 RMK A01 T00981007  RH  048%=      5-min Rain = 0
KCL1 110323Z 36011KT 10/M01 A2985 RMK A01 T00971007  RH  048%=      5-min Rain = 0
KCL1 110324Z 00011KT 10/M01 A2985 RMK A01 T00971007  RH  048%=      5-min Rain = 0
KCL1 110325Z 36011KT 10/M01 A2985 RMK A01 T00961007  RH  049%=      5-min Rain = 0
KCL1 110326Z 00012KT 10/M01 A2985 RMK A01 T00951006  RH  049%=      5-min Rain = 0
KCL1 110327Z 36011KT 10/M01 A2985 RMK A01 T00951005  RH  049%=      5-min Rain = 0
KCL1 110328Z 00011KT 10/M01 A2985 RMK A01 T00951005  RH  050%=      5-min Rain = 0
KCL1 110329Z 00011KT 09/M01 A2985 RMK A01 T00941005  RH  050%=      5-min Rain = 0
KCL1 110330Z 36011KT 09/M01 A2985 RMK A01 T00941005  RH  050%=      5-min Rain = 0
KCL1 110331Z 36011KT 09/M01 A2985 RMK A01 T00931005  RH  050%=      5-min Rain = 0
KCL1 110332Z 00011KT 09/M01 A2985 RMK A01 T00921006  RH  050%=      5-min Rain = 0
KCL1 110333Z 00011KT 09/M01 A2985 RMK A01 T00931006  RH  050%=      5-min Rain = 0
KCL1 110334Z 00011KT 09/M01 A2985 RMK A01 T00921005  RH  050%=      5-min Rain = 0
KCL1 110335Z 00011KT 09/M01 A2985 RMK A01 T00911005  RH  051%=      5-min Rain = 0
KCL1 110336Z 00011KT 09/M01 A2985 RMK A01 T00911006  RH  051%=      5-min Rain = 0
KCL1 110337Z 00011KT 09/M01 A2985 RMK A01 T00911006  RH  051%=      5-min Rain = 0
KCL1 110338Z 00011KT 09/M01 A2985 RMK A01 T00911006  RH  051%=      5-min Rain = 0
KCL1 110339Z 00011KT 09/M01 A2985 RMK A01 T00921006  RH  050%=      5-min Rain = 0
KCL1 110340Z 36011KT 09/M01 A2985 RMK A01 T00931006  RH  050%=      5-min Rain = 0
KCL1 110341Z 35011KT 09/M01 A2985 RMK A01 T00941007  RH  049%=      5-min Rain = 0
KCL1 110342Z 35011KT 10/M01 A2985 RMK A01 T00951007  RH  049%=      5-min Rain = 0
KCL1 110343Z 35011KT 10/M01 A2985 RMK A01 T00961007  RH  049%=      5-min Rain = 0
KCL1 110344Z 35010KT 10/M01 A2985 RMK A01 T00971007  RH  048%=      5-min Rain = 0
KCL1 110345Z 35010KT 10/M01 A2985 RMK A01 T00971007  RH  048%=      5-min Rain = 0
KCL1 110346Z 35010KT 10/M01 A2985 RMK A01 T00981007  RH  048%=      5-min Rain = 0
KCL1 110347Z 35011KT 10/M01 A2985 RMK A01 T00981007  RH  048%=      5-min Rain = 0
KCL1 110348Z 35011KT 10/M01 A2985 RMK A01 T00981007  RH  048%=      5-min Rain = 0
KCL1 110349Z 35011KT 10/M01 A2985 RMK A01 T00991008  RH  047%=      5-min Rain = 0
KCL1 110350Z 35011KT 10/M01 A2985 RMK A01 T01001008  RH  047%=      5-min Rain = 0
KCL1 110351Z 35011KT 10/M01 A2985 RMK A01 T01001008  RH  047%=      5-min Rain = 0
KCL1 110352Z 35011KT 10/M01 A2985 RMK A01 T01001008  RH  047%=      5-min Rain = 0
KCL1 110353Z 35011KT 10/M01 A2986 RMK A01 T00991009  RH  047%=      5-min Rain = 0
KCL1 110354Z 35011KT 10/M01 A2986 RMK A01 T00991009  RH  047%=      5-min Rain = 0
KCL1 110355Z 35011KT 10/M01 A2986 RMK A01 T00981009  RH  047%=      5-min Rain = 0
KCL1 110356Z 35011KT 10/M01 A2986 RMK A01 T00971009  RH  047%=      5-min Rain = 0
KCL1 110357Z 35011KT 10/M01 A2986 RMK A01 T00971009  RH  048%=      5-min Rain = 0
KCL1 110358Z 35011KT 10/M01 A2986 RMK A01 T00971009  RH  047%=      5-min Rain = 0
KCL1 110359Z 35011KT 10/M01 A2986 RMK A01 T00971009  RH  048%=      5-min Rain = 0
KCL1 110400Z 35011KT 10/M01 A2986 RMK A01 T00971009  RH  048%=      5-min Rain = 0
KCL1 110401Z 35011KT 10/M01 A2986 RMK A01 T00971009  RH  047%=      5-min Rain = 0
KCL1 110402Z 35010KT 10/M01 A2986 RMK A01 T00971009  RH  048%=      5-min Rain = 0
KCL1 110403Z 35010KT 10/M01 A2986 RMK A01 T00961010  RH  048%=      5-min Rain = 0
KCL1 110404Z 35010KT 10/M01 A2986 RMK A01 T00951010  RH  048%=      5-min Rain = 0
KCL1 110405Z 35011KT 09/M01 A2986 RMK A01 T00941010  RH  048%=      5-min Rain = 0
KCL1 110406Z 35011KT 09/M01 A2986 RMK A01 T00931010  RH  049%=      5-min Rain = 0
KCL1 110407Z 35011KT 09/M01 A2986 RMK A01 T00921010  RH  049%=      5-min Rain = 0
KCL1 110408Z 35011KT 09/M01 A2986 RMK A01 T00911010  RH  049%=      5-min Rain = 0
KCL1 110409Z 35010KT 09/M01 A2986 RMK A01 T00911010  RH  049%=      5-min Rain = 0
KCL1 110410Z 35010KT 09/M01 A2986 RMK A01 T00911010  RH  049%=      5-min Rain = 0
KCL1 110411Z 34010KT 09/M01 A2986 RMK A01 T00901010  RH  049%=      5-min Rain = 0
KCL1 110412Z 34010KT 09/M01 A2987 RMK A01 T00901010  RH  050%=      5-min Rain = 0
KCL1 110413Z 35010KT 09/M01 A2987 RMK A01 T00901010  RH  050%=      5-min Rain = 0
KCL1 110414Z 34010KT 09/M01 A2987 RMK A01 T00901010  RH  049%=      5-min Rain = 0
KCL1 110415Z 35011KT 09/M01 A2986 RMK A01 T00901010  RH  050%=      5-min Rain = 0
KCL1 110416Z 35010KT 09/M01 A2986 RMK A01 T00891010  RH  050%=      5-min Rain = 0
KCL1 110417Z 35011KT 09/M01 A2986 RMK A01 T00881010  RH  050%=      5-min Rain = 0
KCL1 110418Z 35011KT 09/M01 A2986 RMK A01 T00871010  RH  050%=      5-min Rain = 0
KCL1 110419Z 35011KT 09/M01 A2986 RMK A01 T00871010  RH  051%=      5-min Rain = 0
KCL1 110420Z 35010KT 09/M01 A2986 RMK A01 T00861010  RH  051%=      5-min Rain = 0
KCL1 110421Z 34010KT 09/M01 A2986 RMK A01 T00861010  RH  051%=      5-min Rain = 0
KCL1 110422Z 34010KT 09/M01 A2987 RMK A01 T00861010  RH  051%=      5-min Rain = 0
KCL1 110423Z 34009KT 09/M01 A2987 RMK A01 T00851010  RH  051%=      5-min Rain = 0
KCL1 110424Z 34009KT 08/M01 A2987 RMK A01 T00841010  RH  052%=      5-min Rain = 0
KCL1 110425Z 34010KT 08/M01 A2986 RMK A01 T00831010  RH  052%=      5-min Rain = 0
KCL1 110426Z 34010KT 08/M01 A2986 RMK A01 T00831010  RH  052%=      5-min Rain = 0
KCL1 110427Z 34010KT 08/M01 A2986 RMK A01 T00831010  RH  052%=      5-min Rain = 0
KCL1 110428Z 34011KT 08/M01 A2986 RMK A01 T00831010  RH  052%=      5-min Rain = 0
KCL1 110429Z 34011KT 08/M01 A2986 RMK A01 T00821009  RH  053%=      5-min Rain = 0
KCL1 110430Z 34010KT 08/M01 A2986 RMK A01 T00821009  RH  053%=      5-min Rain = 0
KCL1 110431Z 34012KT 08/M01 A2986 RMK A01 T00811009  RH  053%=      5-min Rain = 0
KCL1 110432Z 34012KT 08/M01 A2986 RMK A01 T00811009  RH  053%=      5-min Rain = 0
KCL1 110433Z 34012KT 08/M01 A2986 RMK A01 T00831009  RH  052%=      5-min Rain = 0
KCL1 110434Z 34012KT 09/M01 A2986 RMK A01 T00861010  RH  051%=      5-min Rain = 0
KCL1 110435Z 34012KT 09/M01 A2986 RMK A01 T00881010  RH  050%=      5-min Rain = 0
KCL1 110436Z 34012KT 09/M01 A2986 RMK A01 T00891010  RH  050%=      5-min Rain = 0
KCL1 110437Z 34012KT 09/M01 A2986 RMK A01 T00901010  RH  050%=      5-min Rain = 0
KCL1 110438Z 34012KT 09/M01 A2986 RMK A01 T00901010  RH  050%=      5-min Rain = 0
KCL1 110439Z 34012KT 09/M01 A2986 RMK A01 T00901009  RH  050%=      5-min Rain = 0
KCL1 110440Z 34012KT 09/M01 A2986 RMK A01 T00901008  RH  050%=      5-min Rain = 0
KCL1 110441Z 34012KT 09/M01 A2986 RMK A01 T00891008  RH  051%=      5-min Rain = 0
KCL1 110442Z 34012KT 09/M01 A2986 RMK A01 T00881008  RH  051%=      5-min Rain = 0
KCL1 110443Z 34013KT 09/M01 A2986 RMK A01 T00881009  RH  051%=      5-min Rain = 0
KCL1 110444Z 34012KT 09/M01 A2986 RMK A01 T00881008  RH  051%=      5-min Rain = 0
KCL1 110445Z 33012KT 09/M01 A2986 RMK A01 T00881008  RH  051%=      5-min Rain = 0
KCL1 110446Z 34012KT 09/M01 A2986 RMK A01 T00881008  RH  051%=      5-min Rain = 0
KCL1 110447Z 34013KT 09/M01 A2986 RMK A01 T00881008  RH  051%=      5-min Rain = 0
KCL1 110448Z 33013KT 09/M01 A2986 RMK A01 T00881008  RH  051%=      5-min Rain = 0
KCL1 110449Z 34013KT 09/M01 A2986 RMK A01 T00881008  RH  051%=      5-min Rain = 0
KCL1 110450Z 33014KT 09/M01 A2986 RMK A01 T00881008  RH  051%=      5-min Rain = 0
KCL1 110451Z 33012KT 09/M01 A2986 RMK A01 T00891008  RH  051%=      5-min Rain = 0
KCL1 110452Z 33013KT 09/M01 A2986 RMK A01 T00891008  RH  051%=      5-min Rain = 0
KCL1 110453Z 33013KT 09/M01 A2986 RMK A01 T00881007  RH  051%=      5-min Rain = 0
KCL1 110454Z 33013KT 09/M01 A2986 RMK A01 T00881007  RH  051%=      5-min Rain = 0
KCL1 110455Z 34013KT 09/M01 A2986 RMK A01 T00871007  RH  052%=      5-min Rain = 0
KCL1 110456Z 33012KT 09/M01 A2986 RMK A01 T00871006  RH  052%=      5-min Rain = 0
KCL1 110457Z 34012KT 09/M01 A2986 RMK A01 T00871006  RH  052%=      5-min Rain = 0
KCL1 110458Z 34012KT 09/M01 A2986 RMK A01 T00871006  RH  052%=      5-min Rain = 0
KCL1 110459Z 34011KT 09/M01 A2986 RMK A01 T00871006  RH  052%=      5-min Rain = 0
KCL1 110500Z 34012KT 09/M01 A2986 RMK A01 T00871006  RH  052%=      5-min Rain = 0
KCL1 110501Z 34011KT 09/M01 A2986 RMK A01 T00871006  RH  052%=      5-min Rain = 0
KCL1 110502Z 34012KT 09/M01 A2986 RMK A01 T00861006  RH  052%=      5-min Rain = 0
KCL1 110503Z 34012KT 09/M01 A2986 RMK A01 T00861007  RH  052%=      5-min Rain = 0
KCL1 110504Z 34011KT 09/M01 A2986 RMK A01 T00861007  RH  052%=      5-min Rain = 0
KCL1 110505Z 34012KT 09/M01 A2986 RMK A01 T00861007  RH  052%=      5-min Rain = 0
KCL1 110506Z 35011KT 09/M01 A2986 RMK A01 T00861007  RH  052%=      5-min Rain = 0
KCL1 110507Z 34011KT 09/M01 A2986 RMK A01 T00861007  RH  052%=      5-min Rain = 0
KCL1 110508Z 35011KT 09/M01 A2986 RMK A01 T00861007  RH  052%=      5-min Rain = 0
KCL1 110509Z 34011KT 09/M01 A2986 RMK A01 T00861007  RH  052%=      5-min Rain = 0
KCL1 110510Z 34011KT 09/M01 A2986 RMK A01 T00861007  RH  052%=      5-min Rain = 0
KCL1 110511Z 34010KT 09/M01 A2986 RMK A01 T00851007  RH  052%=      5-min Rain = 0
KCL1 110512Z 34010KT 09/M01 A2986 RMK A01 T00851007  RH  053%=      5-min Rain = 0
KCL1 110513Z 35011KT 08/M01 A2986 RMK A01 T00841007  RH  053%=      5-min Rain = 0
KCL1 110514Z 35009KT 08/M01 A2986 RMK A01 T00831007  RH  053%=      5-min Rain = 0
KCL1 110515Z 35010KT 08/M01 A2986 RMK A01 T00821006  RH  054%=      5-min Rain = 0
KCL1 110516Z 34010KT 08/M01 A2986 RMK A01 T00811006  RH  054%=      5-min Rain = 0
KCL1 110517Z 34010KT 08/M01 A2987 RMK A01 T00811006  RH  054%=      5-min Rain = 0
KCL1 110518Z 34010KT 08/M01 A2987 RMK A01 T00811006  RH  054%=      5-min Rain = 0
KCL1 110519Z 34010KT 08/M01 A2987 RMK A01 T00811006  RH  054%=      5-min Rain = 0
KCL1 110520Z 34011KT 08/M01 A2986 RMK A01 T00811006  RH  054%=      5-min Rain = 0
KCL1 110521Z 35010KT 08/M01 A2986 RMK A01 T00811006  RH  054%=      5-min Rain = 0
KCL1 110522Z 34011KT 08/M01 A2986 RMK A01 T00811006  RH  054%=      5-min Rain = 0
KCL1 110523Z 34010KT 08/M01 A2986 RMK A01 T00801006  RH  054%=      5-min Rain = 0
KCL1 110524Z 34010KT 08/M01 A2986 RMK A01 T00801006  RH  055%=      5-min Rain = 0
KCL1 110525Z 34010KT 08/M01 A2986 RMK A01 T00801006  RH  055%=      5-min Rain = 0
KCL1 110526Z 35010KT 08/M01 A2986 RMK A01 T00801006  RH  055%=      5-min Rain = 0
KCL1 110527Z 35010KT 08/M01 A2986 RMK A01 T00801006  RH  055%=      5-min Rain = 0
KCL1 110528Z 35011KT 08/M01 A2986 RMK A01 T00791006  RH  055%=      5-min Rain = 0
KCL1 110529Z 35010KT 08/M01 A2986 RMK A01 T00801007  RH  054%=      5-min Rain = 0
KCL1 110530Z 35010KT 08/M01 A2987 RMK A01 T00801007  RH  054%=      5-min Rain = 0
KCL1 110531Z 34009KT 08/M01 A2987 RMK A01 T00801007  RH  054%=      5-min Rain = 0
KCL1 110532Z 34010KT 08/M01 A2987 RMK A01 T00811008  RH  053%=      5-min Rain = 0
KCL1 110533Z 34009KT 08/M01 A2987 RMK A01 T00821008  RH  053%=      5-min Rain = 0
KCL1 110534Z 34010KT 08/M01 A2987 RMK A01 T00821008  RH  053%=      5-min Rain = 0
KCL1 110535Z 34011KT 08/M01 A2986 RMK A01 T00821007  RH  053%=      5-min Rain = 0
KCL1 110536Z 34010KT 08/M01 A2986 RMK A01 T00811006  RH  054%=      5-min Rain = 0
KCL1 110537Z 34010KT 08/M01 A2986 RMK A01 T00821006  RH  054%=      5-min Rain = 0
KCL1 110538Z 34010KT 08/M01 A2986 RMK A01 T00811006  RH  054%=      5-min Rain = 0
KCL1 110539Z 34012KT 08/M01 A2986 RMK A01 T00811006  RH  054%=      5-min Rain = 0
KCL1 110540Z 34012KT 08/M01 A2986 RMK A01 T00811006  RH  054%=      5-min Rain = 0
KCL1 110541Z 34012KT 08/M01 A2986 RMK A01 T00811006  RH  054%=      5-min Rain = 0
KCL1 110542Z 34011KT 08/M01 A2987 RMK A01 T00811006  RH  055%=      5-min Rain = 0
KCL1 110543Z 34012KT 08/M01 A2987 RMK A01 T00801006  RH  055%=      5-min Rain = 0
KCL1 110544Z 34011KT 08/M01 A2987 RMK A01 T00801006  RH  055%=      5-min Rain = 0
KCL1 110545Z 34013KT 08/M01 A2987 RMK A01 T00791006  RH  055%=      5-min Rain = 0
KCL1 110546Z 34012KT 08/M01 A2986 RMK A01 T00791006  RH  055%=      5-min Rain = 0
KCL1 110547Z 34013KT 08/M01 A2986 RMK A01 T00791006  RH  055%=      5-min Rain = 0
KCL1 110548Z 34013KT 08/M01 A2986 RMK A01 T00791005  RH  055%=      5-min Rain = 0
KCL1 110549Z 34013KT 08/M01 A2986 RMK A01 T00791005  RH  055%=      5-min Rain = 0
KCL1 110550Z 34014KT 08/M01 A2986 RMK A01 T00791005  RH  055%=      5-min Rain = 0
KCL1 110551Z 34013KT 08/M01 A2986 RMK A01 T00791005  RH  055%=      5-min Rain = 0
KCL1 110552Z 34014KT 08/M00 A2986 RMK A01 T00801004  RH  055%=      5-min Rain = 0
KCL1 110553Z 34013KT 08/M01 A2986 RMK A01 T00801005  RH  055%=      5-min Rain = 0
KCL1 110554Z 34012KT 08/M00 A2987 RMK A01 T00801004  RH  055%=      5-min Rain = 0
KCL1 110555Z 34013KT 08/M00 A2987 RMK A01 T00811004  RH  055%=      5-min Rain = 0
KCL1 110556Z 33013KT 08/M00 A2987 RMK A01 T00811004  RH  055%=      5-min Rain = 0
KCL1 110557Z 34013KT 08/M00 A2987 RMK A01 T00811003  RH  055%=      5-min Rain = 0
KCL1 110558Z 34013KT 08/M00 A2987 RMK A01 T00821003  RH  055%=      5-min Rain = 0
KCL1 110559Z 34013KT 08/M00 A2987 RMK A01 T00831003  RH  055%=      5-min Rain = 0

Page generated in 0.0697 seconds.